GFSMA_prec_cloud_003.txt.gz
Cloud_Cover
0 0 0 0 0 0 0 1 0 0 0 0 2 5 42 4 5 12 21 22 5 6 13 6 6 38 17 8 39 96 100 100 100 74 87 93 100 100 100 100 100 100 100
0 0 0 0 0 0 0 0 0 0 0 1 5 4 33 38 22 16 5 5 9 5 6 11 5 5 9 23 97 81 100 100 98 100 94 100 94 100 100 100 100 100 100
0 0 0 0 0 0 0 0 0 0 0 4 5 5 3 18 83 62 62 5 5 5 5 5 5 5 60 75 90 79 99 75 96 88 95 100 100 100 100 100 100 100 100
0 0 0 0 0 2 4 0 0 0 0 0 0 5 46 81 62 55 8 5 5 5 5 5 6 29 100 11 57 99 95 96 100 97 100 98 100 100 100 100 100 100 100
0 0 5 5 5 4 0 0 0 0 0 0 1 3 0 4 4 17 6 5 5 3 1 5 6 53 18 74 25 100 52 48 95 100 97 83 100 100 100 100 100 100 100
5 5 5 1 0 0 0 3 0 0 5 4 0 1 2 2 4 4 5 5 5 3 0 5 26 61 35 89 23 6 8 99 49 63 89 100 100 100 100 100 100 100 100
0 0 0 0 0 0 5 5 3 4 5 5 5 4 4 5 5 5 5 5 4 0 3 5 49 72 67 97 5 39 11 5 20 13 71 100 100 100 100 100 100 100 100
0 0 0 0 5 10 68 80 5 7 5 5 8 30 59 14 4 5 1 0 0 4 2 5 10 5 5 5 5 5 76 100 100 95 30 100 100 100 100 100 100 100 100
0 0 0 5 5 6 5 5 15 22 29 18 33 100 100 27 5 5 4 5 4 0 5 70 45 5 5 4 5 5 84 55 46 83 60 100 100 100 100 100 100 100 100
2 0 1 0 5 5 5 22 81 99 100 100 100 100 98 53 56 75 12 5 5 17 79 94 98 30 5 5 5 14 43 54 89 100 92 100 100 100 100 100 100 100 100
1 5 5 22 11 29 24 56 97 100 100 100 100 100 100 98 55 100 100 5 40 100 53 85 98 86 21 5 5 5 45 22 100 100 100 83 100 100 100 100 100 100 100
6 13 42 45 68 69 56 84 100 100 94 100 100 100 100 100 99 100 98 92 13 69 16 40 86 97 100 30 18 5 98 100 100 100 63 97 98 92 100 100 100 100 100
5 5 5 5 27 95 100 100 100 100 64 12 38 89 100 100 100 100 100 100 100 94 100 97 64 96 100 48 39 5 28 100 100 97 100 95 100 100 100 98 100 100 100
5 5 15 92 97 96 100 72 30 62 11 30 30 5 37 92 100 100 100 100 100 100 100 97 96 100 100 96 95 64 5 100 88 73 100 13 97 100 100 100 100 100 100
12 55 39 67 93 81 97 100 76 72 5 0 1 5 73 58 87 68 99 100 100 100 100 100 100 100 100 97 100 100 83 68 86 72 100 94 100 100 100 100 100 100 100
56 92 100 100 100 100 96 32 16 5 4 3 5 40 35 30 45 98 54 85 100 100 100 79 85 100 100 99 100 100 100 93 72 100 100 92 62 100 100 100 100 100 60
22 10 46 88 58 12 10 4 1 0 0 0 3 5 5 5 5 5 5 5 86 100 100 12 32 88 100 91 68 100 100 100 100 100 100 100 100 100 100 100 100 100 100
49 10 5 5 5 5 0 0 0 0 0 1 16 0 0 0 0 1 4 5 32 93 100 100 99 99 99 100 100 100 100 100 100 100 100 100 100 100 100 100 100 100 100
5 5 5 4 1 0 0 0 1 0 0 12 38 16 0 0 0 0 0 0 1 5 60 100 93 100 100 100 100 100 100 100 100 100 100 100 100 100 100 100 100 100 100
1 0 0 0 0 0 0 0 0 0 0 0 0 0 1 5 0 0 3 20 25 39 52 40 66 98 100 92 100 100 86 100 100 100 100 100 100 100 100 100 100 99 100
0 0 0 3 5 5 5 5 5 6 3 1 2 4 2 4 2 5 5 1 31 28 79 84 76 35 96 100 78 100 100 100 100 100 100 100 100 100 100 100 100 100 100
5 6 6 50 7 34 95 68 5 8 91 99 6 2 1 6 1 6 4 8 85 100 100 99 82 86 58 74 100 100 100 100 100 100 100 100 100 100 100 100 100 100 100
5 5 5 4 5 5 5 19 100 100 96 86 65 41 22 42 54 50 63 9 7 9 95 100 100 100 100 97 100 100 100 100 100 100 100 100 100 100 100 100 100 100 100
5 8 21 82 79 40 5 95 100 100 97 84 77 64 23 5 5 5 93 100 100 97 53 94 100 100 97 100 100 100 100 100 100 100 100 100 100 100 100 100 100 100 100
0 0 5 5 5 5 5 87 96 21 5 5 5 5 6 5 5 4 99 100 100 100 100 93 97 64 92 100 100 100 100 100 100 100 100 100 100 100 100 100 100 100 100
0 0 0 0 0 0 4 5 0 0 0 0 5 5 5 48 5 16 100 100 100 100 100 100 100 100 100 100 100 100 100 100 100 100 100 100 100 100 100 100 100 100 100

GFSMA_prec_cloud_006.txt.gz
Cloud_Cover
0 0 1 4 6 19 17 25 20 0 0 0 0 0 2 0 5 5 5 12 5 13 5 5 5 5 3 5 37 5 5 50 6 24 7 100 100 27 7 49 64 85 100
0 0 0 0 0 2 0 0 1 0 0 0 0 0 0 0 3 5 5 4 1 5 5 15 16 5 75 5 6 5 5 5 49 100 50 52 67 91 30 18 26 99 59
0 0 0 0 0 0 1 0 0 0 0 4 1 0 1 2 10 25 5 5 5 7 5 5 5 35 92 5 5 5 5 5 33 32 100 37 16 35 8 5 5 88 100
2 3 4 5 5 4 1 0 0 4 3 0 0 2 5 5 5 20 7 5 5 5 11 6 5 5 5 5 5 5 5 5 10 5 82 68 57 27 61 74 100 100 100
8 5 5 5 5 4 0 1 0 0 2 4 5 71 25 5 5 5 6 5 5 15 5 87 44 43 5 5 5 5 5 5 5 38 18 5 5 62 95 81 100 100 100
5 8 7 5 3 5 1 5 5 5 4 5 5 5 6 7 9 69 5 24 5 5 9 9 6 81 71 5 5 4 5 5 5 5 5 5 5 18 5 41 100 96 100
5 5 4 0 0 0 5 5 3 0 4 4 47 5 5 5 21 5 22 83 53 7 5 5 5 50 60 5 5 5 2 5 5 5 5 5 5 5 99 98 74 74 98
0 0 0 0 5 5 5 5 1 8 37 75 100 100 100 88 5 5 5 6 12 46 10 5 5 23 100 5 5 5 5 5 5 5 5 5 99 45 100 100 100 88 100
5 5 5 5 5 5 7 5 5 10 99 100 100 100 100 100 80 76 24 5 11 42 90 6 18 17 76 7 8 5 5 5 5 5 5 90 100 100 100 100 100 52 32
5 5 5 5 5 5 5 5 78 36 98 100 100 100 100 100 100 100 100 99 64 44 5 5 42 88 90 82 5 5 5 9 5 5 6 100 100 100 100 100 100 53 100
5 5 5 14 28 22 27 93 94 100 49 82 96 98 99 100 100 100 100 72 36 38 6 6 63 98 100 100 50 24 6 5 46 5 5 87 100 100 100 100 100 100 99
24 5 5 5 5 5 17 16 13 52 84 80 100 100 100 100 100 100 100 100 98 66 88 79 100 100 100 100 100 96 64 14 76 52 69 100 100 100 100 100 100 100 97
5 5 5 5 0 2 5 13 5 7 30 22 12 29 90 100 100 100 100 100 100 99 58 98 100 100 100 100 100 100 93 15 42 30 65 100 81 96 100 100 100 100 100
5 5 5 5 5 2 5 5 16 93 6 5 6 70 100 93 7 27 70 100 100 100 100 100 100 100 100 100 100 100 100 78 19 83 94 99 17 66 100 100 100 100 98
4 5 2 5 5 5 5 5 5 5 13 56 7 5 4 5 5 25 5 5 52 100 90 93 100 100 100 100 100 100 100 100 100 93 100 100 31 56 100 100 100 100 100
6 5 3 2 0 2 4 1 5 5 2 0 5 2 3 3 3 2 1 4 11 93 99 72 84 100 100 100 100 100 100 100 100 100 100 100 37 78 60 100 100 100 100
1 1 3 17 52 55 30 4 0 0 0 0 0 0 2 5 5 5 5 5 5 13 79 0 9 2 35 99 100 100 100 100 100 100 100 99 100 92 63 84 100 100 100
99 54 24 21 2 0 0 0 1 0 0 1 5 5 5 5 4 2 0 1 11 6 56 100 30 61 5 1 7 46 100 100 100 100 100 100 87 100 100 100 100 100 100
4 0 0 0 0 0 3 5 7 5 5 10 58 5 5 5 5 10 5 19 18 14 53 100 100 100 100 31 5 8 33 97 100 100 100 100 100 100 100 100 100 100 100
0 0 0 0 0 0 0 3 4 3 5 5 10 69 64 99 100 100 91 100 100 100 100 100 100 100 100 100 100 97 100 89 78 100 100 100 100 99 100 100 100 100 100
0 0 0 0 0 0 4 5 5 5 57 91 100 100 100 100 100 95 70 6 89 100 100 100 100 100 100 100 100 100 88 79 44 94 100 100 100 100 100 100 100 100 100
0 0 0 0 0 0 4 5 5 5 5 5 39 66 100 100 100 98 96 100 100 69 100 100 100 100 100 100 82 96 100 100 100 80 100 100 100 100 100 100 100 100 100
0 0 0 0 0 0 0 0 0 5 5 5 83 86 60 78 100 100 100 100 100 97 100 100 100 100 100 100 100 99 100 92 100 100 100 100 100 100 100 100 100 100 100
0 0 0 0 0 0 0 0 0 4 5 5 11 5 14 7 5 99 18 5 8 84 100 100 100 100 100 100 100 100 100 100 100 100 100 100 100 100 100 100 100 100 100
0 0 0 0 0 0 0 0 0 0 0 0 0 0 5 5 7 55 73 8 18 100 79 100 100 100 100 100 100 100 100 100 100 100 100 100 100 100 100 100 100 100 100
0 0 0 0 0 0 0 0 2 5 5 5 6 5 10 62 54 19 49 52 100 100 100 100 100 93 100 100 100 100 100 100 100 100 100 100 100 100 100 100 100 100 100

GFSMA_prec_cloud_009.txt.gz
Cloud_Cover
14 5 1 6 13 15 25 25 29 22 16 0 0 0 0 0 0 0 0 4 2 5 5 5 5 14 5 5 8 8 5 2 3 3 3 5 5 10 76 42 77 97 100
47 5 1 2 23 29 24 18 10 7 5 6 0 0 0 0 0 0 2 29 5 5 5 5 5 77 8 12 63 8 7 5 5 5 5 1 5 5 5 39 99 96 62
38 1 0 0 0 5 27 64 8 10 13 8 0 0 0 1 2 5 5 40 5 5 5 5 54 42 65 100 99 23 5 5 6 94 5 5 5 5 64 5 5 5 7
22 0 0 4 74 100 100 99 6 1 0 0 0 2 5 5 5 5 25 5 5 5 5 8 74 64 36 52 36 46 5 12 5 34 70 5 12 39 5 5 5 5 5
0 0 0 4 5 43 38 12 5 0 0 0 2 5 5 5 5 5 5 5 5 6 5 5 11 40 82 100 51 33 35 5 5 42 97 21 5 5 6 5 5 5 5
0 0 4 1 4 5 5 5 11 31 23 9 31 14 15 9 5 5 5 5 5 5 22 70 83 99 100 100 96 92 64 5 5 35 95 100 14 5 5 5 5 5 5
0 0 0 0 0 5 13 16 15 19 15 26 100 100 100 43 5 5 5 5 6 32 52 95 80 68 100 100 100 48 28 5 5 5 93 100 100 8 5 5 5 5 54
0 0 1 5 5 27 11 0 2 31 49 46 100 100 100 99 55 5 5 5 5 9 98 86 16 78 100 100 100 83 9 5 5 5 63 100 100 64 5 5 5 5 78
0 0 0 5 4 14 20 29 28 52 72 79 100 100 100 100 99 100 73 81 67 28 41 84 100 100 100 100 100 94 99 88 8 5 23 100 100 99 22 5 5 5 100
2 5 5 12 15 14 36 40 53 100 100 100 100 100 100 100 100 100 100 100 100 100 100 100 100 100 100 100 97 95 100 100 92 5 21 100 100 100 99 12 5 7 100
5 5 5 5 23 66 86 98 72 48 80 99 100 100 100 100 100 100 100 100 100 100 100 100 100 100 100 100 100 100 100 100 100 97 47 100 100 100 100 90 16 62 100
52 83 100 100 87 46 5 5 5 5 5 5 9 5 14 46 94 100 100 100 100 94 100 100 94 100 100 100 100 100 100 100 100 100 100 98 47 98 100 100 97 100 100
100 92 54 28 6 5 13 14 6 5 15 5 5 5 24 5 1 8 21 17 15 5 15 89 100 100 100 100 100 100 100 100 100 100 100 100 100 97 100 100 89 76 100
9 26 60 73 91 57 13 8 6 50 95 53 11 5 5 4 5 5 12 69 80 48 21 20 1 1 4 7 56 100 57 100 100 100 100 100 100 100 100 100 99 99 92
49 54 90 84 38 5 5 5 5 5 4 3 4 2 0 0 3 5 5 14 61 100 100 98 81 44 73 35 15 11 99 95 100 100 100 100 100 100 100 100 100 100 100
24 14 6 5 5 5 15 5 5 3 0 0 0 0 0 4 5 5 16 98 100 99 96 19 56 2 1 0 0 5 5 100 100 100 100 100 100 100 100 100 100 100 100
63 43 79 77 15 5 5 4 1 0 0 1 0 0 0 1 3 6 71 100 100 100 100 5 26 45 100 92 94 49 40 28 99 100 100 100 100 100 100 100 100 100 100
100 100 11 8 4 0 0 0 0 0 1 0 0 0 2 4 11 16 9 65 98 100 100 97 33 59 86 96 100 100 100 100 100 100 100 100 100 100 100 100 100 100 100
75 2 0 0 0 0 0 0 0 0 0 0 0 2 5 63 17 16 84 55 87 74 100 100 55 88 86 100 30 40 100 100 100 100 100 100 100 100 99 100 100 100 100
0 0 0 0 0 0 0 0 0 0 0 1 1 5 5 5 5 6 41 77 92 94 99 100 100 97 73 85 100 100 97 100 100 100 100 100 100 100 98 100 100 100 100
0 0 0 0 0 0 0 0 0 0 2 0 0 0 5 5 5 6 63 6 41 75 43 87 60 87 82 98 100 100 100 100 94 100 100 100 94 97 100 90 100 100 100
0 0 0 0 0 0 0 0 0 0 1 0 0 0 4 5 4 3 6 5 51 99 74 70 8 77 37 100 100 100 100 100 90 100 100 100 96 89 70 92 100 100 100
0 0 0 0 0 0 0 0 0 0 0 0 0 0 0 1 4 5 5 7 48 65 11 75 77 48 96 100 100 100 100 100 100 100 100 100 100 99 54 100 100 100 100
0 0 0 0 0 0 0 0 0 0 3 4 5 0 5 5 5 5 74 100 99 5 5 5 92 100 75 67 100 100 100 100 100 100 100 100 100 100 99 100 100 100 100
0 0 0 0 4 5 10 5 5 5 5 5 5 5 16 5 8 96 99 100 5 5 6 90 100 91 100 100 100 100 100 100 100 100 100 100 100 100 100 100 100 100 100
0 0 0 0 0 0 1 5 31 56 68 71 72 94 5 5 95 100 100 97 100 100 100 86 48 97 100 100 100 100 100 100 100 100 100 100 100 100 100 100 100 100 100

GFSMA_prec_cloud_012.txt.gz
Cloud_Cover
18 27 14 54 11 11 24 22 24 14 16 10 5 5 0 0 0 0 0 0 0 0 0 0 4 5 5 5 18 5 28 63 96 66 75 91 90 39 99 89 9 88 44
15 61 100 29 12 16 9 12 12 12 17 12 5 5 0 0 0 0 0 5 0 0 0 0 5 5 5 5 9 7 5 5 44 88 61 100 100 100 90 100 100 58 99
5 95 100 23 0 6 1 14 16 32 62 36 11 4 0 0 0 0 0 3 5 5 5 5 5 5 5 5 6 56 31 15 74 97 98 100 100 100 17 81 100 100 100
49 28 82 5 5 0 3 3 3 5 31 15 8 1 0 0 0 0 1 0 5 5 5 5 5 8 5 5 5 47 97 94 100 100 100 84 100 100 100 98 100 100 100
5 5 5 5 5 0 0 16 34 89 99 100 100 84 67 33 5 0 5 3 5 5 5 5 5 5 5 5 7 100 100 99 100 100 100 100 100 100 97 100 100 89 85
5 5 5 5 42 53 32 25 92 100 100 81 87 100 100 70 0 2 0 5 5 5 5 5 5 5 5 5 5 52 71 97 100 100 100 100 100 100 91 91 44 5 91
5 5 5 2 0 0 0 3 64 90 83 55 100 95 65 6 6 40 5 5 2 1 1 5 5 7 5 54 5 8 44 100 100 100 100 100 96 100 17 6 5 5 68
2 5 5 4 0 2 8 27 96 98 100 100 100 100 100 62 55 11 5 5 3 5 5 5 5 21 8 6 26 50 88 100 100 100 100 98 44 8 8 92 67 24 13
2 0 1 0 0 8 37 26 42 72 94 70 100 100 100 100 100 45 52 24 80 99 79 49 59 82 87 58 41 87 100 100 100 94 97 8 10 58 100 100 100 100 100
0 0 0 2 5 5 5 5 5 5 9 13 5 27 75 95 100 100 100 100 96 53 74 54 48 63 86 60 57 66 100 100 99 93 85 98 100 100 100 96 28 61 100
1 5 5 5 5 5 5 5 5 5 5 5 5 2 5 5 5 25 43 5 23 26 37 63 34 18 97 100 96 100 100 100 100 100 100 99 100 84 5 5 65 100 37
8 18 9 7 16 40 41 28 17 22 28 36 61 58 9 5 10 29 63 57 51 8 5 5 5 19 19 19 57 99 100 100 100 100 100 100 90 99 60 100 64 100 97
5 6 34 17 5 5 7 9 5 5 5 5 5 5 5 5 5 11 8 20 90 42 33 5 4 2 5 24 38 5 39 99 90 100 100 100 100 100 98 100 78 99 100
7 15 7 5 5 19 17 5 5 5 5 5 5 5 4 0 1 0 0 82 94 62 68 16 0 0 0 14 4 5 5 73 100 100 100 100 100 100 100 100 100 100 100
25 6 26 62 44 5 5 5 5 5 5 5 1 0 0 0 0 2 73 32 30 50 2 0 1 3 5 5 14 67 44 5 28 99 100 100 100 100 100 100 100 100 100
44 48 6 5 5 5 12 42 22 5 2 0 0 0 0 0 0 19 12 58 75 98 92 0 0 8 42 100 100 100 100 93 39 32 98 100 100 99 100 100 100 100 100
5 5 5 51 41 55 12 0 0 0 0 0 0 0 0 1 39 7 42 56 71 89 97 5 5 4 5 86 86 100 100 100 100 100 100 100 100 88 35 82 99 100 100
5 23 6 1 0 0 0 0 0 0 0 0 0 0 2 3 5 5 5 5 5 85 100 50 5 0 0 13 56 100 100 100 100 100 100 100 100 100 100 100 100 100 100
5 5 0 0 0 0 0 0 0 0 0 0 5 0 0 0 0 0 0 4 10 100 61 5 5 4 3 0 3 4 45 100 100 100 100 100 100 100 100 100 100 100 100
3 0 0 0 0 0 0 0 0 0 0 4 2 5 2 0 0 0 1 4 40 26 25 90 81 50 8 5 5 5 4 54 84 100 100 100 100 100 100 100 100 100 100
0 0 0 0 0 0 0 0 0 0 0 0 0 5 5 5 5 5 46 6 21 68 99 100 100 100 100 62 38 22 37 5 100 100 98 71 100 61 100 100 100 100 100
0 0 0 0 0 0 0 0 0 4 0 0 4 0 0 4 5 30 34 72 90 100 100 100 100 100 100 94 97 87 100 100 82 83 100 100 99 100 100 100 100 43 100
0 0 0 0 0 0 0 0 5 5 5 5 5 5 5 20 86 28 5 70 81 96 95 55 73 77 100 12 95 100 100 100 100 81 95 90 100 100 100 100 100 100 100
0 0 0 0 0 0 0 5 5 5 5 5 5 5 80 26 5 98 92 91 100 20 5 86 100 100 96 100 99 83 100 100 100 100 100 100 100 100 100 100 100 100 100
5 1 0 0 0 0 0 5 42 5 5 5 5 6 86 26 71 100 100 79 5 18 5 10 82 73 100 64 66 100 100 100 100 100 86 100 98 100 93 100 100 50 91
0 0 0 0 0 0 3 36 81 94 42 5 51 69 5 93 100 100 100 100 98 5 26 65 70 24 89 100 100 100 100 100 100 100 44 93 100 100 100 100 98 100 100

GFSMA_prec_cloud_015.txt.gz
Cloud_Cover
96 100 96 17 5 24 5 19 5 0 0 0 0 0 5 5 5 5 5 0 0 0 0 0 0 0 0 0 4 5 5 5 5 5 5 5 47 80 99 82 100 100 100
70 16 6 41 5 5 11 6 5 0 0 0 0 4 5 5 13 5 10 28 5 5 5 4 0 0 4 5 5 5 5 5 5 5 5 5 21 96 100 100 100 100 100
6 74 33 5 4 5 5 5 1 13 11 10 10 14 14 7 7 7 6 5 5 4 0 0 0 1 5 3 5 5 5 5 5 5 5 5 76 76 100 71 100 100 100
5 2 0 0 1 5 3 5 5 1 0 58 82 71 97 46 0 1 4 3 0 0 0 0 4 5 5 5 0 5 5 5 42 33 57 24 78 77 100 98 100 100 100
0 2 2 0 4 5 5 7 9 21 5 19 49 14 19 4 3 0 0 0 0 0 0 5 3 2 2 3 4 5 5 5 26 67 57 80 99 100 97 67 100 100 100
5 5 5 5 6 5 4 30 53 87 100 100 100 100 98 48 15 0 0 0 0 0 0 0 1 3 0 1 5 5 52 87 19 5 8 100 92 100 99 100 100 100 100
78 99 61 12 5 5 3 0 6 9 21 87 95 59 69 9 3 1 5 5 5 5 5 5 5 5 5 5 5 5 5 5 5 5 13 99 98 51 83 62 92 86 16
28 10 5 5 3 0 0 0 0 0 3 5 89 98 67 4 8 6 13 13 40 41 5 6 5 5 5 5 23 5 5 5 5 5 6 39 34 32 12 36 70 76 90
5 4 0 0 0 0 0 0 0 0 0 1 0 42 32 3 0 5 33 36 18 5 5 6 33 31 30 5 37 5 49 34 5 39 52 6 5 5 97 95 100 100 96
1 0 0 0 4 0 0 0 0 2 5 5 5 5 0 0 0 1 0 0 1 2 5 30 43 26 16 11 7 5 87 100 96 35 58 92 75 75 98 86 17 66 91
0 0 0 0 0 0 0 2 5 5 5 5 5 11 54 59 5 5 13 1 0 0 0 0 4 5 14 24 3 1 21 100 100 100 100 100 100 100 100 100 100 39 95
0 0 0 0 0 3 10 40 23 5 5 4 3 0 10 64 97 76 5 1 0 0 0 0 0 0 0 0 1 1 1 8 96 100 99 100 100 100 100 99 100 100 100
1 0 4 5 5 5 5 5 4 3 5 5 5 4 18 20 5 2 5 5 13 38 34 17 96 97 12 3 6 8 5 8 21 100 100 100 100 100 100 100 100 100 100
7 81 57 5 10 28 5 5 5 5 5 5 0 0 0 0 0 0 1 71 58 26 16 5 9 30 48 52 5 6 34 100 80 73 100 100 96 97 100 100 100 100 100
78 56 62 67 53 9 50 6 5 5 5 0 0 0 0 0 3 5 64 82 33 96 5 0 1 3 45 30 5 4 37 98 99 100 100 100 100 100 100 99 100 100 100
54 46 67 20 57 21 5 5 5 0 0 0 0 0 0 0 3 3 7 5 61 84 77 0 0 16 48 3 0 0 1 0 14 62 100 100 100 100 81 92 83 38 19
9 4 3 5 5 5 5 3 3 0 0 0 0 0 5 4 0 0 0 0 0 3 4 0 3 23 29 2 0 2 0 0 0 1 30 100 100 100 100 45 88 99 99
4 5 5 5 5 5 2 0 0 0 0 0 0 5 0 0 0 0 0 1 5 7 5 58 51 9 5 5 6 9 5 5 1 0 0 1 30 100 100 100 99 27 87
5 5 5 5 5 1 0 0 0 0 0 0 0 0 0 0 0 1 5 5 77 70 46 5 80 12 5 36 5 5 17 5 5 5 5 5 4 87 100 100 100 100 63
5 5 4 0 0 0 0 0 0 0 0 0 0 0 2 5 5 8 39 88 66 5 5 5 5 5 5 5 5 11 5 5 5 5 36 100 20 2 95 100 88 98 68
5 0 0 0 0 0 0 0 0 0 0 1 5 5 5 5 5 86 100 98 82 8 75 9 5 68 69 5 5 12 96 42 9 79 63 1 37 5 6 100 100 100 100
0 0 0 0 0 0 0 0 5 5 5 5 5 5 5 5 49 98 70 99 100 100 67 100 53 61 14 5 15 99 100 100 100 33 5 5 100 55 5 8 100 100 100
0 0 0 0 1 0 0 0 5 5 19 5 40 5 5 68 89 5 14 86 54 58 13 88 100 97 85 5 86 100 100 100 100 20 76 98 57 100 100 100 100 100 98
0 0 0 0 0 0 0 5 24 49 17 67 97 8 88 82 17 100 35 100 5 0 6 96 100 78 81 54 77 94 95 86 86 18 95 100 100 78 88 100 96 100 25
0 0 0 0 0 0 2 25 82 69 19 72 14 61 91 6 80 100 100 30 5 5 5 80 100 100 100 82 100 100 96 100 84 7 100 100 72 99 100 100 100 100 100
0 0 0 0 0 0 5 72 93 44 27 30 68 88 15 57 100 100 100 84 7 5 91 59 5 5 11 18 98 100 100 100 100 100 100 100 99 100 100 99 72 100 97

GFSMA_prec_cloud_018.txt.gz
Cloud_Cover
10 63 51 95 100 100 5 14 16 5 8 14 12 6 8 12 0 0 0 5 5 5 5 4 5 5 5 2 1 2 0 0 0 0 5 5 5 5 56 77 87 44 87
78 70 54 58 39 21 63 26 14 70 5 5 5 5 5 23 23 26 27 3 4 3 4 5 3 0 0 0 0 0 0 0 0 0 5 5 5 65 90 100 100 100 100
79 20 65 95 97 97 11 8 15 45 47 47 42 33 22 20 21 18 34 27 5 3 1 0 0 0 0 0 0 0 0 0 0 5 5 5 5 18 31 100 100 100 100
63 72 57 49 24 6 35 55 74 70 69 83 99 53 60 38 18 23 34 13 18 0 0 0 0 0 0 6 24 87 59 2 1 5 5 5 5 5 99 97 97 77 100
5 7 15 43 52 65 60 41 16 27 23 37 99 36 17 8 6 8 11 13 2 0 0 0 0 0 0 0 0 2 41 77 33 2 5 5 12 87 76 60 19 5 70
10 10 10 3 0 5 5 34 49 7 8 5 1 0 4 4 0 0 0 2 25 54 41 37 31 2 0 0 0 0 0 11 5 4 4 4 3 5 5 5 30 6 26
0 0 0 1 29 54 41 5 5 0 0 0 0 0 0 0 7 0 35 70 3 2 0 20 23 63 82 65 3 5 45 64 64 92 6 5 4 5 5 5 13 78 95
8 33 60 66 65 16 5 4 0 0 0 0 0 0 0 3 4 4 5 5 5 5 5 14 34 24 71 24 41 19 1 48 100 100 95 77 6 3 4 5 5 5 5
5 5 5 5 5 5 4 0 0 0 0 3 0 0 0 0 0 5 5 5 5 0 0 0 5 4 5 4 0 0 0 0 28 89 100 61 73 87 54 5 0 0 0
2 5 5 5 5 0 0 0 0 0 0 0 1 5 2 0 4 1 5 4 5 5 5 5 5 3 0 0 10 57 23 0 1 2 36 99 100 97 100 100 91 48 24
5 0 0 0 0 0 0 0 0 0 0 0 4 5 5 5 0 1 4 0 0 0 2 3 0 5 2 8 5 10 41 100 52 100 100 100 100 100 100 100 100 100 34
0 0 0 1 0 0 2 5 5 5 5 5 3 0 0 2 5 4 4 4 0 0 0 0 1 5 19 51 24 100 100 100 100 96 40 100 100 100 100 100 92 100 100
1 5 5 5 8 5 5 5 5 5 5 5 4 4 5 5 1 0 0 0 0 1 1 5 5 5 17 35 5 23 26 5 0 0 5 92 100 100 100 100 100 100 100
48 42 55 43 11 23 36 5 5 5 5 5 5 5 5 2 0 0 5 5 5 48 0 0 0 5 5 5 5 5 73 38 0 3 2 6 100 100 100 63 100 100 100
92 100 81 15 36 10 5 5 5 5 2 5 5 1 0 0 0 0 5 4 52 5 5 0 0 0 0 0 0 56 100 5 3 1 5 1 5 11 91 37 99 38 56
99 52 13 5 5 5 5 5 5 5 5 2 4 2 0 0 0 0 0 0 2 16 5 0 0 0 1 2 11 86 80 5 2 5 5 5 10 2 5 4 5 46 57
5 5 5 5 5 5 5 5 4 0 0 3 0 0 0 0 0 0 0 1 4 18 99 1 50 1 5 6 6 6 5 12 5 5 5 19 10 0 0 2 1 32 7
3 5 5 7 5 5 3 2 0 0 0 0 0 0 0 0 0 0 5 5 65 90 100 92 14 41 24 28 96 98 69 17 34 5 5 5 5 5 4 0 2 62 70
5 3 5 2 1 4 0 0 0 0 0 0 0 0 1 5 5 5 13 80 94 100 92 13 5 5 5 18 34 42 59 77 5 13 6 5 5 8 7 2 0 0 0
5 5 3 0 0 0 0 0 0 0 0 0 0 5 5 5 10 37 68 98 92 74 28 37 18 5 5 3 33 5 5 2 11 6 24 11 18 25 23 3 5 2 48
1 3 2 0 0 0 0 0 0 0 0 4 5 5 5 22 38 89 100 99 98 18 33 95 81 5 5 4 26 5 73 5 4 4 21 6 52 92 72 5 8 8 67
4 0 0 0 0 0 0 0 5 5 5 5 7 13 66 77 85 100 100 100 100 100 46 100 77 22 5 98 7 18 5 70 70 5 87 40 8 5 5 5 5 15 6
0 0 0 0 0 0 0 0 5 5 25 70 75 89 86 97 99 100 100 97 92 97 100 100 100 7 47 22 84 78 88 92 69 6 83 55 4 55 5 5 5 32 100
0 0 0 0 0 0 0 5 15 16 66 83 95 99 98 99 100 100 67 87 97 100 100 88 78 50 98 92 99 100 100 96 33 60 100 99 55 13 71 68 87 100 100
0 0 0 0 0 0 0 23 63 69 87 89 95 100 100 100 100 100 100 100 99 58 12 49 100 100 86 98 100 100 100 100 98 91 100 100 90 96 99 99 69 92 72
0 0 0 0 0 0 2 64 88 100 96 97 96 100 100 100 100 100 100 68 93 6 32 58 17 7 87 99 100 100 100 100 100 100 100 100 100 99 100 100 100 100 100

GFSMA_prec_cloud_024.txt.gz
Cloud_Cover
5 5 5 5 10 5 10 74 28 42 100 100 100 100 100 100 100 100 100 100 100 83 29 37 89 26 61 100 100 100 75 12 3 1 2 4 5 0 0 0 0 3 5
5 0 5 42 100 100 98 100 100 100 100 100 100 100 74 67 22 5 2 3 2 4 5 72 71 72 22 24 100 26 68 99 92 22 0 0 0 1 4 5 5 5 2
25 25 26 91 80 100 100 100 100 100 91 35 27 6 9 14 5 2 0 0 2 2 97 100 85 51 6 5 31 83 78 5 75 100 97 56 4 5 5 5 1 0 0
96 14 100 100 100 96 76 31 17 36 27 13 10 5 5 3 0 0 0 0 5 20 98 32 18 48 5 0 2 4 5 4 1 5 9 90 100 98 21 2 4 3 5
45 94 88 17 0 0 5 28 50 67 54 6 5 11 8 0 0 0 5 6 19 22 5 98 18 4 5 5 7 30 31 13 5 5 5 5 5 35 93 100 40 5 5
0 0 0 0 0 0 0 0 0 0 0 0 3 2 2 2 5 5 19 78 76 11 0 6 0 2 4 5 5 8 6 76 21 6 5 5 5 29 55 84 70 98 92
40 30 5 4 0 0 0 0 0 1 4 1 5 10 39 55 40 94 96 26 32 2 0 5 5 5 0 0 0 1 5 5 2 0 1 5 3 5 38 58 100 100 100
85 5 0 0 0 0 0 0 3 2 4 4 6 7 38 72 5 5 5 3 1 5 7 5 5 4 5 5 4 0 0 0 0 0 0 0 8 78 60 100 100 100 100
4 5 4 4 4 5 5 3 5 5 4 3 4 1 5 14 5 7 7 5 5 5 5 5 5 5 5 5 2 0 0 0 0 0 0 10 57 45 100 80 100 100 100
2 2 0 0 0 1 0 1 5 9 5 6 5 5 3 0 1 4 37 35 69 93 89 38 24 32 14 2 4 1 3 2 1 2 91 100 96 100 100 100 98 100 100
0 0 2 0 0 0 0 0 5 5 0 5 5 5 7 17 5 1 2 1 2 3 2 1 5 5 5 0 0 2 5 4 5 5 25 76 100 100 100 100 100 45 100
0 0 2 5 5 5 54 21 5 1 0 1 3 4 5 5 5 5 5 3 1 5 5 5 2 0 0 0 0 0 0 0 0 0 1 5 40 6 72 100 100 100 100
4 5 5 5 5 7 5 5 5 5 28 36 53 59 24 22 16 26 5 2 1 0 0 0 0 0 0 0 0 0 0 0 0 0 0 1 5 27 95 100 100 74 5
5 5 5 5 5 5 5 5 5 6 5 35 78 94 36 63 47 5 2 0 0 0 0 0 0 0 0 5 0 2 3 42 4 4 5 5 5 28 87 16 38 93 100
46 58 57 23 5 5 5 5 5 5 15 28 84 92 50 6 5 4 0 0 0 3 2 0 0 0 5 2 6 92 5 4 5 5 9 12 55 8 78 96 100 100 100
6 61 88 5 5 5 5 18 78 61 35 37 5 5 5 4 0 0 0 0 1 5 4 0 3 4 0 9 33 43 5 5 2 23 56 44 73 93 44 21 72 100 7
73 75 72 61 5 38 91 77 42 32 6 5 5 2 0 0 0 0 0 3 5 11 100 4 0 1 5 3 0 4 5 5 5 44 17 5 5 5 32 83 33 91 97
61 100 70 92 100 68 19 5 5 23 5 4 0 0 0 0 0 0 5 5 5 5 49 46 5 5 5 4 5 5 48 6 100 88 11 7 40 84 43 98 99 65 40
94 72 83 47 67 15 5 21 54 5 0 0 0 0 0 0 3 5 5 5 5 25 64 100 43 5 6 5 5 12 15 58 5 25 2 5 72 98 67 90 92 100 77
98 96 100 96 46 5 5 4 0 0 0 0 0 0 0 5 22 9 6 56 100 100 100 38 100 92 66 18 51 100 70 15 3 2 5 6 100 5 12 100 97 89 12
100 100 49 5 5 3 0 0 0 0 0 0 0 3 5 5 62 89 100 93 100 89 66 100 100 98 73 95 95 31 46 5 4 5 58 35 8 5 5 5 5 25 33
49 27 5 1 0 0 0 0 0 0 0 0 5 5 5 20 75 98 100 100 100 100 100 100 100 93 5 31 98 100 100 100 95 84 100 5 37 43 5 33 42 100 100
5 4 0 0 0 0 0 0 0 5 5 5 5 5 5 5 46 5 13 95 100 96 100 100 76 59 80 86 99 90 100 100 100 99 93 99 85 75 66 7 5 26 93
5 0 1 0 0 0 0 0 1 5 5 5 5 7 74 8 84 100 97 100 78 85 48 89 93 100 100 100 100 100 100 78 96 100 100 100 47 98 98 100 100 100 100
2 0 0 0 0 0 0 0 5 5 5 5 15 100 100 80 97 100 100 100 78 51 5 5 87 100 96 100 100 100 100 100 100 100 100 50 96 95 100 100 100 100 100
0 0 0 0 0 0 0 2 5 54 74 68 60 82 72 100 100 100 100 96 98 6 81 95 5 5 5 15 99 100 100 100 100 100 100 94 90 91 100 100 100 100 89

GFSMA_prec_cloud_027.txt.gz
Cloud_Cover
4 5 5 5 5 16 41 68 100 100 100 71 93 78 89 100 100 100 100 100 100 100 97 12 5 0 1 4 13 3 13 65 73 100 81 9 4 4 5 5 5 5 5
4 5 48 54 100 100 100 100 100 100 100 58 34 39 93 100 100 100 100 82 100 36 5 5 5 100 82 0 0 50 92 32 5 6 82 79 44 8 5 3 2 0 0
5 56 63 96 100 100 100 100 92 19 5 5 5 16 93 10 34 78 100 99 67 8 5 0 0 14 3 5 70 98 58 12 50 71 5 5 6 81 94 8 5 5 5
100 100 100 100 100 97 35 0 0 0 0 5 5 5 5 5 5 4 3 3 5 5 5 0 3 2 86 62 14 25 47 3 22 96 5 11 5 5 5 53 90 53 18
77 82 73 35 0 0 0 0 0 0 0 0 2 5 5 5 4 5 0 0 1 0 0 4 9 21 47 43 15 7 5 0 13 5 39 6 5 5 5 20 39 54 50
9 8 3 0 4 3 1 0 0 0 0 0 0 0 0 0 0 0 0 1 0 3 4 5 5 5 52 87 100 93 6 0 2 1 5 5 44 8 5 5 5 27 98
88 71 93 64 20 5 2 0 0 0 0 0 0 0 0 2 3 1 5 4 5 5 5 5 5 5 5 2 0 0 0 2 5 5 4 0 5 5 5 5 7 6 91
24 16 5 5 5 1 5 4 0 0 0 0 0 0 3 2 1 0 2 0 0 4 4 5 5 5 7 10 54 12 5 5 5 44 29 25 5 5 2 10 61 42 100
65 45 5 2 0 0 0 0 0 0 0 0 0 0 0 2 28 52 8 21 5 5 9 9 9 22 17 6 5 5 5 5 5 0 2 10 72 98 73 90 100 100 93
4 0 0 0 0 0 0 0 0 0 0 0 2 0 0 0 0 1 47 88 99 100 84 97 100 100 91 39 18 16 8 5 5 3 5 84 10 5 11 100 100 100 77
0 0 0 0 0 4 5 5 4 5 0 0 0 0 0 0 0 0 0 0 0 3 24 95 100 100 100 56 34 27 39 4 4 0 4 18 51 42 100 83 49 88 100
0 0 0 0 5 5 5 5 5 5 5 0 0 0 0 0 0 0 0 0 1 2 5 6 4 3 3 3 2 0 0 0 0 1 5 5 19 42 98 98 100 100 23
0 0 0 4 5 5 5 5 5 5 3 0 0 0 0 0 0 0 0 0 0 0 3 0 0 0 0 0 0 5 0 4 5 5 5 16 86 100 100 100 100 100 100
0 3 5 5 5 5 5 5 5 5 5 5 5 5 5 5 3 0 0 0 0 0 0 0 0 0 0 4 5 4 1 30 6 5 5 24 65 75 96 100 100 100 100
5 5 5 12 5 5 5 5 5 5 5 5 5 5 5 5 3 5 5 0 0 5 0 0 3 0 5 5 5 5 4 0 5 5 32 100 67 96 100 96 100 99 100
5 5 63 39 10 5 7 32 5 21 48 49 10 5 6 2 0 0 0 0 0 2 53 2 0 3 0 4 5 5 1 4 1 5 54 100 100 95 99 100 90 38 96
5 59 90 76 75 68 56 34 80 96 99 59 11 5 1 0 0 0 0 0 3 74 43 1 0 0 2 5 5 4 5 5 5 13 100 100 100 99 100 100 41 66 100
83 60 77 79 80 90 100 100 96 11 5 5 0 0 0 0 0 0 3 5 5 5 54 68 5 5 5 4 5 5 58 46 45 46 100 100 100 100 91 35 100 100 100
82 83 86 100 96 100 95 28 5 5 5 0 0 0 0 0 1 5 5 22 12 90 100 100 66 5 24 67 21 75 82 5 5 5 26 6 6 41 67 100 100 100 100
100 100 96 93 99 53 5 5 5 2 0 0 0 0 0 1 5 48 11 75 99 71 21 5 50 97 16 73 100 23 5 5 78 48 5 14 97 100 100 86 78 99 94
100 82 88 95 17 5 5 0 0 0 0 0 0 0 0 5 43 98 100 95 88 37 93 100 100 100 86 5 5 9 84 76 95 100 85 53 94 14 5 6 9 35 98
100 100 32 7 5 2 0 0 0 0 0 0 4 5 5 5 5 99 98 100 100 100 100 100 100 100 8 90 74 53 94 100 97 64 99 98 100 61 6 5 76 100 100
86 33 12 5 4 3 5 1 0 1 5 5 5 5 5 5 25 35 15 94 82 96 100 100 91 64 99 50 94 100 100 100 100 100 93 100 100 100 87 43 68 100 100
5 5 5 5 5 3 0 0 1 5 5 5 5 5 38 40 53 100 94 96 98 99 42 80 78 83 100 100 100 100 97 100 100 100 95 100 100 99 21 39 97 88 97
5 5 6 5 0 0 0 0 5 5 5 5 5 6 100 52 87 100 100 100 89 8 5 13 100 100 62 81 100 100 100 100 98 100 100 100 53 98 97 70 100 98 100
5 6 3 5 0 0 0 5 74 6 5 5 6 10 42 95 100 100 100 100 84 5 87 98 37 100 100 99 100 100 100 100 100 93 100 100 97 88 100 100 100 94 96

GFSMA_prec_cloud_030.txt.gz
Cloud_Cover
3 1 59 77 100 100 93 100 100 100 100 100 100 32 42 5 40 12 15 5 27 86 100 100 100 100 100 93 29 21 52 13 4 40 2 4 5 7 5 5 5 5 5
42 42 11 11 20 100 100 100 100 100 100 39 24 14 10 5 5 5 17 5 7 53 84 100 81 51 100 98 71 10 8 30 5 5 2 2 5 26 70 55 28 9 5
56 73 58 88 99 100 100 100 100 16 5 5 5 5 18 7 5 5 4 5 5 5 6 8 65 100 60 26 6 23 92 97 33 0 0 0 16 8 31 18 32 75 84
100 100 100 100 100 93 33 0 0 0 0 0 0 0 0 0 0 0 0 1 4 5 5 5 5 5 6 14 5 9 17 10 7 1 6 43 24 46 75 10 5 2 45
94 78 51 6 5 5 5 5 1 0 0 0 0 0 0 0 0 0 0 0 0 0 0 0 0 1 1 4 4 0 0 1 5 5 5 23 99 100 100 57 12 3 5
5 6 7 5 28 52 57 5 5 5 5 4 4 2 0 0 0 0 0 0 0 0 0 0 0 0 0 0 5 7 5 7 5 6 17 10 5 22 27 19 5 18 13
5 0 15 60 62 8 5 5 5 8 16 3 0 0 0 0 0 0 0 0 0 0 2 5 5 3 5 5 5 5 5 5 5 5 5 5 3 0 0 5 5 5 32
0 0 3 0 0 2 0 0 0 0 0 0 0 0 0 2 5 4 5 5 0 0 0 0 0 3 4 5 5 5 5 5 5 49 83 47 91 80 37 5 5 40 90
2 0 0 0 0 0 0 0 0 0 0 0 0 0 0 0 1 36 30 6 2 0 0 0 0 0 0 0 0 1 1 3 5 5 5 5 7 22 31 14 5 5 95
0 0 0 0 0 0 0 0 0 0 2 5 3 0 0 0 0 0 1 2 0 5 5 5 5 5 1 0 0 1 1 1 0 0 5 5 5 5 5 21 11 5 41
0 0 0 0 0 0 0 0 0 0 2 0 0 0 0 0 0 0 0 0 0 0 0 3 5 4 0 0 0 0 0 0 1 5 5 5 5 6 8 80 90 93 75
0 0 0 0 0 0 0 0 5 5 4 3 0 0 0 0 0 0 0 0 0 0 0 5 5 1 0 0 0 0 0 5 5 5 5 46 100 99 96 98 100 100 100
0 0 0 0 0 0 1 5 5 5 5 3 0 1 1 0 0 0 0 0 0 0 0 0 0 0 0 0 0 0 1 2 5 5 30 37 76 98 100 100 100 100 100
0 0 0 0 0 5 5 5 5 4 5 5 5 5 0 0 0 0 0 0 0 0 0 0 0 0 0 0 2 5 0 0 5 5 5 69 71 100 100 100 100 100 99
0 0 0 0 4 5 5 5 5 5 5 5 5 5 5 5 5 3 0 0 2 5 2 1 5 2 2 0 0 3 4 5 68 97 98 72 91 87 100 100 100 100 100
0 1 5 5 5 5 5 5 5 5 5 5 5 5 5 5 1 0 0 0 0 5 15 4 4 4 5 5 5 5 5 69 15 5 78 100 100 100 100 100 100 100 100
4 5 5 5 5 5 5 5 5 5 5 5 5 5 4 0 0 0 0 0 4 5 10 5 2 4 5 5 5 61 99 53 50 39 100 97 100 100 100 100 100 100 100
2 5 19 57 5 5 5 43 60 7 5 5 5 0 1 0 0 0 0 5 5 5 99 96 5 5 5 4 5 16 91 100 50 5 31 100 100 100 100 100 100 100 100
10 71 14 19 49 64 95 96 19 5 5 4 4 5 5 1 0 0 5 5 5 78 95 84 10 5 10 5 20 100 98 5 5 3 5 26 100 100 100 100 100 100 100
96 9 49 83 79 81 27 5 3 5 5 4 4 5 0 2 0 17 76 54 100 71 44 91 90 92 24 54 93 91 5 5 4 3 12 100 98 100 100 100 100 100 78
24 75 84 58 51 6 5 5 5 5 5 4 0 0 5 5 5 99 100 100 97 96 100 99 70 74 98 13 18 5 5 5 29 97 70 5 72 65 42 82 36 16 96
85 68 60 30 5 5 5 5 5 5 0 0 4 5 3 5 18 100 99 100 100 100 43 87 100 98 33 66 26 89 100 100 96 54 87 100 100 62 7 5 68 100 100
89 90 89 28 5 5 5 5 4 2 5 5 4 1 5 5 23 8 5 75 7 81 100 96 58 22 97 70 100 100 100 100 100 83 96 97 77 100 92 94 94 100 100
78 98 38 5 5 5 5 1 4 5 4 0 0 5 61 8 5 100 88 72 100 24 5 5 97 97 100 100 100 100 100 100 93 80 100 100 14 59 14 6 16 43 100
57 5 5 5 5 5 2 3 5 5 5 5 5 70 70 39 47 100 100 60 79 7 2 13 98 94 100 92 100 100 100 100 100 100 100 100 97 91 93 66 36 61 62
7 41 5 5 5 5 0 5 25 5 5 5 22 68 79 84 100 100 100 98 42 4 95 98 100 100 100 100 100 100 100 100 100 100 100 100 100 99 100 100 98 100 100

GFSMA_prec_cloud_033.txt.gz
Cloud_Cover
15 13 0 2 0 1 99 100 100 100 100 100 97 4 5 4 31 85 100 100 98 100 41 11 31 65 100 100 100 100 100 100 100 100 100 100 76 62 20 22 80 66 14
100 100 71 42 68 100 100 100 100 100 95 18 36 5 0 5 5 0 1 25 58 83 6 22 8 11 5 5 36 80 100 100 100 100 100 100 92 46 84 79 86 60 38
100 99 100 97 57 62 100 100 74 0 5 4 5 3 0 4 0 0 0 0 0 1 2 4 5 5 5 5 3 5 6 50 69 92 96 84 44 96 93 100 100 92 6
100 100 100 100 57 28 0 1 5 5 2 5 5 5 5 2 0 0 0 0 0 0 0 0 0 0 0 0 0 0 0 4 4 5 5 63 85 40 5 5 5 5 4
100 100 83 5 5 1 2 2 2 5 5 5 5 1 1 0 0 0 0 0 0 0 0 0 0 0 0 0 0 0 0 0 0 0 0 1 2 0 0 0 0 0 3
73 87 9 5 0 0 0 2 3 5 4 2 0 0 0 0 0 0 0 0 0 0 0 0 1 4 4 7 17 54 6 10 28 61 82 38 8 14 36 5 29 8 5
100 52 5 5 0 0 0 0 0 0 0 0 0 0 0 0 0 0 0 3 2 0 0 0 5 5 92 7 5 5 5 5 5 5 5 5 5 3 4 2 4 4 5
75 6 5 2 0 0 0 0 0 0 0 0 0 0 0 1 0 2 4 1 0 0 0 0 0 0 0 0 0 0 0 0 1 4 5 5 5 5 5 5 5 3 5
10 5 3 0 0 0 0 0 0 0 0 0 0 0 0 0 0 1 0 0 0 0 0 0 0 0 0 0 0 0 0 0 0 3 5 5 5 5 5 5 5 5 5
28 5 0 0 0 0 0 0 0 0 0 0 0 0 0 0 0 0 0 0 4 4 5 5 5 5 5 4 5 0 0 2 4 5 5 5 5 5 5 5 5 6 7
5 0 0 0 0 0 0 0 0 0 0 0 0 0 0 0 0 0 0 0 0 5 5 5 5 5 5 5 5 5 5 5 1 5 5 5 5 7 10 88 100 99 8
0 0 0 0 0 0 0 0 0 0 0 0 4 0 0 0 0 0 0 0 0 0 1 4 5 4 5 4 2 2 0 0 5 5 5 32 33 94 96 82 96 97 99
0 0 0 0 0 0 0 0 0 0 0 0 0 0 0 0 0 0 0 0 0 0 0 0 0 0 1 0 0 0 0 5 5 5 5 6 82 100 100 100 100 99 98
0 0 0 0 0 0 0 0 0 0 2 5 4 4 0 1 1 0 0 0 3 0 0 0 0 0 0 0 4 5 1 0 5 5 5 88 100 100 100 100 100 100 100
0 0 0 0 0 0 0 0 3 5 5 5 5 5 5 5 1 0 0 0 5 5 4 0 0 3 5 5 5 5 5 5 7 97 100 100 100 100 100 100 100 100 100
0 0 0 0 0 0 5 5 5 5 5 5 5 5 5 0 0 0 0 0 0 5 78 4 5 5 5 5 5 5 5 5 5 42 100 100 100 100 100 100 100 100 100
0 0 0 1 4 5 5 5 5 5 5 8 5 5 3 0 2 4 0 0 4 5 57 5 5 5 5 3 2 5 7 90 21 65 98 100 100 100 100 100 100 100 100
1 0 2 5 12 20 5 5 65 57 6 5 5 5 5 5 1 0 0 5 5 5 89 98 7 5 5 0 5 54 100 100 100 100 12 14 100 100 100 100 100 100 100
0 5 5 46 67 20 62 80 43 5 5 5 5 4 2 0 1 3 5 5 22 95 99 96 72 25 29 80 56 100 90 89 5 3 5 11 11 100 100 100 100 100 100
5 5 5 8 20 67 26 5 5 5 5 5 5 0 0 0 0 6 5 67 87 52 28 93 100 98 94 96 72 46 5 5 5 5 9 16 99 100 100 99 100 100 100
5 5 62 77 20 5 5 5 5 5 5 1 0 0 0 2 5 67 100 56 82 86 100 96 100 100 72 5 5 5 35 46 83 75 85 86 100 79 28 22 40 54 100
27 28 6 5 7 49 5 5 5 5 5 3 0 0 0 0 5 16 72 100 100 100 97 100 85 61 6 5 5 94 100 100 95 98 100 22 67 80 20 5 28 100 100
5 5 5 48 61 5 5 5 5 5 3 0 0 0 1 5 5 5 10 56 99 98 91 74 50 20 78 48 100 100 100 100 100 99 100 100 49 76 6 5 19 94 100
47 61 96 20 5 5 5 3 5 5 2 0 0 3 5 5 48 100 85 100 9 5 5 5 66 90 100 100 100 100 100 100 100 100 100 100 87 100 100 99 100 94 100
94 86 7 5 5 5 1 2 5 5 5 5 5 92 66 87 98 100 100 84 70 5 4 15 96 77 22 66 100 100 97 100 100 100 100 100 100 97 100 100 100 100 100
64 5 5 5 5 0 1 3 5 5 5 6 90 6 64 82 100 100 100 95 66 6 93 97 77 78 55 98 100 100 100 100 100 100 85 100 96 96 100 100 78 98 88

GFSMA_prec_cloud_036.txt.gz
Cloud_Cover
72 15 5 5 5 33 85 100 100 100 100 96 24 8 5 5 3 0 0 0 0 0 1 2 5 5 5 5 6 91 100 100 100 100 100 100 100 100 100 100 100 100 100
100 98 100 100 100 100 100 100 100 81 3 0 0 0 0 0 4 5 4 0 0 0 0 0 0 0 3 5 1 1 1 10 37 98 98 98 100 100 100 100 100 100 100
100 100 100 100 92 83 100 48 10 5 2 2 0 0 0 4 0 0 0 0 0 0 0 0 0 0 0 0 0 0 0 0 0 2 5 5 6 36 57 87 100 100 100
100 100 100 100 100 8 68 57 18 5 2 0 0 0 0 0 0 0 0 0 0 0 0 0 0 0 0 0 0 0 0 0 0 0 0 0 1 5 5 5 24 6 39
100 100 100 100 54 71 81 87 6 5 5 1 0 0 0 0 0 0 0 0 0 0 0 0 0 0 0 0 0 0 0 1 1 4 5 4 4 3 3 3 2 5 5
100 100 100 100 24 58 100 30 5 5 12 0 0 0 0 0 0 0 0 0 0 0 0 0 4 4 1 5 5 5 5 28 96 100 100 99 97 98 67 22 19 5 5
100 87 88 74 98 100 84 5 5 60 3 0 0 0 0 0 0 0 0 0 0 0 0 0 0 0 0 0 0 0 0 0 0 5 59 42 68 92 65 89 96 100 100
100 97 100 100 97 49 11 24 49 5 0 0 0 0 0 0 0 0 0 0 0 0 0 0 0 0 0 0 0 0 0 0 0 3 5 5 5 5 2 4 4 4 4
94 100 78 56 54 75 46 54 8 0 0 0 0 0 0 0 0 0 1 1 0 0 0 0 0 0 0 0 0 0 0 0 0 2 5 5 5 5 6 8 10 6 6
100 83 58 32 61 73 49 6 5 0 0 0 0 0 0 0 0 0 0 0 0 0 0 2 0 0 0 0 0 0 0 0 0 5 5 5 5 9 25 22 71 24 29
15 50 52 68 88 49 5 5 0 0 0 0 0 0 0 0 0 0 0 0 0 5 0 4 5 5 5 5 5 0 0 0 5 5 5 5 6 9 13 62 87 100 100
68 35 50 72 16 5 5 0 0 0 0 0 0 0 0 0 0 0 0 0 0 0 0 1 4 5 2 0 0 0 0 5 5 5 17 96 84 96 95 100 100 100 100
49 64 41 32 5 5 4 0 0 0 0 0 1 0 0 0 0 0 0 0 0 0 0 0 0 0 0 0 0 0 0 2 4 5 5 18 92 100 100 100 100 100 100
36 76 60 5 5 4 0 0 0 0 0 0 2 5 5 5 1 0 0 0 2 0 0 0 0 0 0 0 4 5 4 5 5 5 5 62 97 100 100 100 100 100 100
26 65 23 5 3 0 0 0 5 5 5 5 5 5 5 5 5 2 0 0 3 5 1 0 0 1 3 5 5 5 5 2 28 100 89 84 99 100 100 100 100 100 100
41 22 5 3 5 0 0 3 5 5 5 5 5 5 5 4 0 0 1 1 4 5 55 2 5 5 5 5 5 5 5 5 5 57 100 100 100 100 100 100 100 100 100
5 5 4 5 4 0 5 5 5 5 5 5 5 4 0 1 1 0 4 5 4 5 53 6 5 5 5 5 5 5 60 100 5 92 84 100 100 100 100 100 100 100 100
5 5 5 5 0 5 5 5 5 5 5 5 5 5 5 1 0 0 0 3 5 5 99 82 5 5 5 5 9 99 85 9 5 5 89 100 100 100 100 100 100 74 100
5 5 14 5 5 5 5 5 4 0 5 5 5 4 0 0 0 0 5 5 19 85 92 81 50 37 5 99 80 12 5 0 2 4 6 5 100 100 100 100 100 100 100
5 82 16 5 5 5 5 3 0 4 5 5 5 0 0 0 0 5 57 81 100 56 13 96 94 95 94 6 4 5 5 5 8 61 54 62 98 90 90 95 100 100 100
92 71 66 5 0 2 5 5 5 5 5 3 0 0 0 2 5 63 100 99 100 70 99 100 100 98 40 5 5 5 82 52 92 100 40 77 16 5 41 5 5 39 96
70 8 4 3 5 4 5 5 5 5 5 5 0 0 0 2 5 12 48 100 100 100 100 89 60 99 14 5 44 100 100 100 98 78 100 100 81 92 73 7 38 100 100
44 5 5 5 5 5 5 5 4 5 5 1 0 2 5 5 5 5 8 90 100 98 22 54 21 8 88 65 100 100 100 100 100 96 100 100 15 68 90 73 100 100 100
5 5 5 5 5 5 5 5 4 5 5 5 68 10 5 5 5 100 87 100 29 5 5 5 62 98 100 100 100 100 100 100 100 80 100 100 59 66 88 100 100 100 100
5 5 43 18 5 5 5 5 5 5 65 14 5 17 29 56 86 100 100 83 56 5 2 14 96 86 26 71 99 100 90 100 100 98 94 99 93 85 100 100 100 85 97
30 97 5 5 5 5 5 5 47 5 5 5 19 5 6 100 100 100 100 98 39 4 77 96 5 8 5 30 86 99 100 100 100 100 92 100 95 93 100 94 94 100 75

GFSMA_prec_cloud_039.txt.gz
Cloud_Cover
51 52 66 6 9 48 69 100 100 100 28 40 5 4 5 0 0 0 0 0 0 0 0 0 0 0 0 0 0 0 2 2 5 5 5 5 78 68 25 90 100 100 100
100 98 100 100 100 100 100 90 19 14 30 23 5 5 5 4 0 0 0 0 0 0 0 0 0 0 0 0 0 0 0 0 0 0 0 2 4 5 15 5 15 87 100
100 100 100 100 100 86 38 15 11 54 94 99 73 5 16 5 3 4 0 0 0 0 0 0 0 0 0 0 0 0 0 0 0 0 0 0 0 0 0 0 4 18 6
100 100 100 100 89 85 42 6 96 100 92 99 6 25 5 5 0 5 0 0 0 0 0 0 0 0 0 0 0 0 0 0 0 0 0 0 0 0 0 0 0 0 3
100 100 100 100 100 85 52 84 100 100 85 87 6 5 5 5 4 3 0 0 0 0 0 0 0 0 0 0 0 0 0 0 0 0 0 3 4 2 2 3 2 3 3
99 100 100 100 100 100 100 100 100 100 99 32 5 5 5 4 5 0 0 0 0 0 0 0 0 0 0 0 0 0 0 0 0 0 0 0 2 2 5 5 10 51 44
100 100 100 100 100 100 100 100 100 100 98 14 5 5 5 5 3 0 0 0 0 0 0 0 0 0 0 0 0 0 0 0 0 0 4 0 0 2 1 0 0 2 5
100 100 100 100 100 100 100 100 81 68 28 12 47 50 7 5 0 0 0 0 0 0 0 0 0 0 0 0 0 0 0 0 0 0 4 5 4 5 5 5 4 5 5
100 100 100 100 100 100 86 28 21 52 75 99 70 48 7 5 0 0 0 0 0 0 0 0 0 0 0 0 0 0 0 0 0 2 5 5 5 5 5 5 5 28 8
100 98 56 100 100 86 64 37 15 51 55 47 16 5 5 0 0 5 1 0 0 0 0 0 0 1 0 0 0 0 0 0 1 5 5 5 5 5 12 60 17 63 100
92 26 60 94 100 100 98 35 38 5 5 5 5 5 5 0 0 0 5 0 4 5 5 5 5 9 10 5 2 0 0 1 5 5 5 10 6 30 42 83 100 100 100
14 56 88 100 100 100 29 16 13 5 5 5 5 5 3 0 0 0 0 0 0 0 4 5 92 60 2 1 0 0 0 2 5 5 5 6 82 96 100 100 100 100 100
40 10 100 100 100 38 5 5 5 5 5 5 5 3 0 0 0 0 0 0 0 0 0 0 0 0 0 0 0 1 3 5 5 5 5 5 86 100 100 100 100 100 100
8 44 100 99 28 5 5 16 5 5 5 4 2 0 0 0 0 0 0 0 0 0 0 0 0 0 0 4 5 5 5 5 5 11 36 51 93 100 100 100 100 100 100
5 53 57 5 5 5 56 23 5 5 5 5 3 0 2 0 0 0 0 0 5 2 0 0 0 1 5 37 14 5 20 36 21 67 93 100 100 100 100 100 100 100 100
6 5 13 22 59 5 5 5 5 5 5 1 0 5 0 0 0 0 0 0 3 5 5 0 0 5 33 17 5 67 76 85 6 66 100 100 100 100 100 100 100 100 100
64 11 39 48 14 5 5 5 5 5 5 5 0 0 0 0 0 0 0 0 5 5 5 4 5 5 10 5 85 100 100 99 84 35 57 84 100 100 100 100 100 100 100
56 8 82 58 5 6 5 5 5 5 4 0 0 0 0 0 2 0 0 1 5 5 65 54 5 13 4 67 100 100 91 8 5 5 6 100 100 100 100 100 100 100 100
21 99 88 5 5 5 5 5 5 2 0 0 1 0 1 1 0 0 3 15 18 87 100 100 16 5 86 95 80 11 5 5 28 61 5 99 100 100 100 100 100 100 100
100 98 15 5 32 24 5 5 5 0 0 5 5 5 0 0 0 7 84 100 100 99 76 96 62 100 76 5 5 8 13 5 86 86 8 94 91 92 100 100 100 100 100
99 26 64 37 71 53 10 3 0 4 5 5 5 4 2 5 5 69 100 100 99 94 97 98 100 10 5 5 7 8 99 92 84 100 6 52 70 5 5 14 62 100 100
44 81 85 94 20 5 5 5 5 5 4 5 5 5 5 0 5 88 84 100 100 100 100 100 61 86 14 90 12 100 100 100 100 71 100 100 54 38 5 5 33 100 100
73 99 71 5 5 3 5 5 5 5 5 5 5 5 5 5 5 5 19 95 92 100 73 63 80 57 92 15 100 100 98 100 100 94 98 99 5 24 5 44 100 100 100
95 9 5 1 4 5 5 5 5 5 5 5 5 3 5 5 5 100 98 92 65 5 57 69 95 78 100 100 100 99 94 100 100 50 94 99 15 82 98 100 100 100 91
5 5 5 5 44 76 5 5 5 5 5 5 4 5 5 89 100 100 100 61 99 70 3 12 91 97 33 42 98 100 81 100 100 97 8 100 85 100 93 100 98 61 70
5 5 17 72 57 5 5 5 5 5 68 44 69 76 39 100 100 100 100 96 90 5 71 100 5 5 5 8 96 99 100 100 100 100 33 100 95 98 96 73 66 70 89

GFSMA_prec_cloud_042.txt.gz
Cloud_Cover
63 48 94 71 27 82 89 43 10 76 65 98 99 55 52 5 91 5 27 5 5 5 3 0 0 0 0 0 0 0 0 0 0 0 0 0 0 0 0 4 5 40 61
64 50 77 91 100 100 100 96 65 55 85 100 78 34 38 33 17 64 9 15 5 5 5 0 0 0 0 0 0 0 0 0 0 0 0 0 0 0 0 0 0 0 4
57 77 91 100 90 100 100 100 71 89 97 92 100 40 21 30 74 89 62 34 6 6 6 5 1 0 0 0 0 0 0 0 0 0 0 0 0 0 0 0 0 0 0
91 89 96 100 72 68 100 100 100 100 100 100 100 100 100 82 100 71 75 88 5 35 5 5 1 0 0 0 0 0 0 0 0 0 0 0 0 0 0 0 0 0 0
79 85 85 91 81 5 10 83 100 100 100 97 100 100 100 100 100 78 69 58 53 8 5 5 4 0 0 0 0 0 0 0 0 0 2 0 0 1 0 4 1 0 0
70 35 69 47 6 5 53 80 100 97 100 100 100 100 100 100 100 94 45 74 42 82 6 5 2 0 0 0 0 0 0 0 0 0 2 5 0 4 3 0 2 0 0
40 13 87 41 5 7 22 100 100 100 100 100 96 100 100 100 96 94 99 64 28 22 5 5 0 0 0 0 0 0 0 0 0 2 4 4 2 2 0 2 0 3 0
100 100 65 6 96 100 100 100 100 100 100 100 100 96 63 92 93 60 44 20 43 5 5 0 0 0 0 0 0 0 0 0 0 0 5 3 4 3 5 5 5 5 5
100 100 95 100 57 42 45 98 92 98 100 98 93 72 74 65 27 5 5 5 5 4 3 0 0 0 0 0 0 0 0 0 0 2 5 5 5 5 5 5 5 5 5
99 80 26 13 59 69 77 100 96 64 63 85 96 83 63 25 18 36 4 1 5 0 0 0 0 0 0 0 0 0 0 0 0 5 5 5 5 5 3 9 73 38 97
100 63 34 55 99 42 69 100 83 52 85 84 42 60 5 6 5 5 7 5 5 5 0 0 4 5 3 0 0 0 0 5 5 5 5 7 9 22 49 32 100 100 100
100 46 5 12 9 32 32 100 58 62 26 44 7 5 5 6 5 5 5 10 5 5 5 5 1 0 0 0 0 0 0 5 5 5 5 5 41 91 96 100 100 100 100
22 97 5 5 5 18 5 42 5 5 5 5 5 5 5 5 5 5 5 5 5 5 1 0 0 0 0 0 0 0 2 5 5 5 5 28 100 100 100 100 100 100 100
98 46 18 5 29 5 57 7 5 5 5 5 5 5 5 6 5 5 4 0 0 0 0 0 0 0 0 0 4 5 5 24 95 90 82 100 100 100 100 100 100 100 100
77 4 24 8 5 5 5 5 5 5 6 7 18 26 5 5 5 5 0 0 0 0 0 0 0 0 0 3 5 5 13 70 52 83 100 100 100 100 100 100 100 100 100
6 5 17 57 6 5 5 5 8 13 33 36 18 5 5 5 4 0 0 0 0 0 0 0 0 1 5 10 32 70 82 59 83 100 100 100 100 100 100 100 100 100 100
5 5 10 21 68 64 44 69 62 43 8 30 5 5 5 5 3 0 0 0 0 0 0 0 3 5 57 96 70 100 100 71 5 12 5 94 100 100 100 100 100 100 100
5 5 5 84 90 61 83 72 22 24 5 10 5 5 2 5 0 0 0 0 0 5 51 5 12 41 82 93 100 100 100 8 5 17 41 98 100 100 100 100 100 100 100
5 5 16 88 63 98 82 5 10 45 51 9 5 4 1 2 0 0 0 5 34 78 96 100 49 30 77 97 100 56 44 20 96 97 85 99 97 84 100 100 100 100 100
5 16 50 75 99 60 5 30 73 65 9 5 2 5 1 0 0 5 5 43 92 100 98 98 29 50 87 61 18 19 88 35 100 96 29 100 79 92 91 83 78 99 100
68 56 89 100 41 58 85 67 24 5 4 5 5 0 2 1 5 6 82 99 100 99 92 77 97 100 17 5 30 45 93 96 90 100 14 86 7 5 5 6 46 92 100
100 100 100 24 77 88 58 2 2 2 5 5 5 5 5 5 17 78 100 100 100 100 98 100 97 54 90 98 96 100 98 100 100 76 100 100 6 5 5 5 10 100 100
100 80 60 91 98 13 4 5 5 5 5 5 5 4 5 5 80 96 100 100 100 100 100 100 100 100 99 100 100 90 92 86 100 22 96 100 5 18 5 6 42 94 94
98 92 99 57 5 5 5 5 5 5 5 5 2 5 34 72 91 100 100 77 100 88 100 100 98 100 100 100 100 100 99 87 100 96 98 100 6 34 6 60 68 92 93
98 58 5 5 5 5 5 5 5 5 2 5 5 44 79 100 100 100 99 67 99 99 88 86 98 100 100 98 100 100 84 100 90 96 5 96 92 99 81 91 100 75 5
60 9 5 13 12 5 5 5 5 0 5 5 10 54 80 100 100 100 100 100 99 84 44 51 100 81 96 93 100 100 100 100 100 100 29 100 96 97 100 65 5 5 86

GFSMA_prec_cloud_045.txt.gz
Cloud_Cover
95 91 99 99 100 95 100 98 100 100 99 49 70 45 6 21 7 14 99 94 88 88 74 82 7 7 5 6 5 4 4 2 0 0 0 0 0 0 0 0 0 0 0
66 100 100 96 94 52 27 54 86 87 48 37 30 19 42 38 25 61 100 98 99 89 100 100 44 74 12 14 5 5 5 5 0 0 0 0 0 0 0 0 0 0 0
72 99 100 98 51 72 56 27 74 89 93 76 20 88 99 100 100 98 90 100 100 100 100 100 100 80 37 62 83 27 5 5 4 0 0 0 0 0 0 0 0 0 0
0 98 88 97 32 59 25 5 5 5 3 5 5 78 85 90 100 100 100 100 100 100 100 100 100 91 47 54 90 51 5 5 5 0 0 0 0 1 0 0 0 0 0
0 4 99 58 89 11 5 5 5 5 0 4 5 84 97 100 100 100 100 100 100 100 100 100 89 97 87 41 64 11 5 5 5 0 0 0 0 1 0 0 4 1 1
0 4 25 97 100 35 5 5 5 5 4 4 5 82 100 100 100 99 100 100 100 100 87 96 95 84 46 5 35 15 5 5 0 0 3 2 0 2 1 3 2 3 3
0 0 3 100 88 89 84 53 5 5 5 6 22 92 100 94 99 100 100 100 100 67 72 80 66 61 46 92 24 5 5 5 0 5 1 4 0 2 3 2 1 4 5
27 14 46 100 95 92 94 78 100 43 5 5 10 6 32 86 67 89 63 8 63 83 55 5 8 7 5 5 5 5 5 0 0 2 5 5 3 4 3 4 5 5 5
100 100 100 100 100 100 100 96 89 68 51 43 74 31 5 5 46 40 12 6 9 13 5 5 5 5 3 5 5 5 1 0 0 5 5 5 5 5 5 5 5 16 8
98 100 100 74 100 100 100 100 41 12 5 56 93 27 5 7 30 50 5 4 5 2 0 2 3 1 3 5 4 2 0 0 0 5 5 5 5 5 13 18 17 35 81
100 100 100 99 100 100 99 72 5 5 7 5 40 40 5 42 10 5 5 0 2 4 5 5 1 0 0 0 0 0 0 0 5 5 5 5 6 29 39 78 100 100 100
100 100 100 97 98 94 57 4 5 5 5 5 5 20 46 6 5 5 0 0 0 2 2 4 1 4 3 2 0 0 0 0 5 5 5 5 50 96 100 100 100 100 100
93 97 100 100 72 5 1 0 1 4 10 5 18 22 5 0 0 2 2 0 5 30 19 5 5 5 1 0 0 0 0 4 5 5 5 84 100 100 100 100 100 100 100
100 100 100 100 100 5 0 0 5 12 18 5 5 5 5 4 1 0 3 5 5 10 6 5 1 4 1 0 0 0 0 5 5 5 70 96 100 100 100 100 100 100 100
100 80 100 100 100 26 5 5 5 29 74 10 8 5 5 5 5 5 5 5 4 3 5 4 0 0 0 0 0 4 0 2 6 84 86 100 100 100 100 100 100 100 100
100 100 94 80 57 5 5 5 5 12 52 64 40 5 5 5 5 5 5 5 5 0 0 0 0 0 0 3 0 5 5 27 5 23 91 96 94 100 100 100 100 100 100
100 100 88 55 71 7 5 5 5 5 47 41 5 21 5 5 5 5 0 1 0 0 0 0 0 4 5 5 5 5 5 5 4 7 5 77 100 100 100 100 100 100 100
100 100 100 87 69 5 5 5 5 72 51 31 13 5 5 5 5 0 0 0 0 0 4 5 5 5 5 5 9 85 43 5 1 4 64 86 100 100 100 100 100 100 100
98 100 100 97 27 56 43 39 85 60 48 11 5 5 4 0 0 0 0 0 2 5 5 5 5 5 5 87 78 68 3 5 5 5 18 15 95 25 100 100 100 100 100
91 86 100 78 67 68 88 85 66 72 22 5 5 2 1 5 0 0 2 5 5 5 39 45 5 5 62 94 30 5 22 5 5 5 5 5 32 11 50 6 42 77 100
100 100 100 100 95 100 89 81 78 63 23 5 5 4 5 3 2 4 34 18 54 72 38 88 98 100 93 5 35 25 38 72 5 52 53 4 22 5 5 5 5 34 100
100 100 100 100 100 100 83 92 88 5 5 5 5 5 5 3 0 6 66 96 100 100 98 100 100 100 60 5 5 61 17 99 97 58 100 88 5 5 5 5 7 97 100
100 100 100 100 100 100 99 59 13 5 5 5 5 4 0 4 5 5 54 96 96 88 100 100 100 99 79 9 52 17 100 97 98 45 74 46 5 5 5 5 5 66 81
100 100 100 100 100 100 61 67 7 5 5 5 0 0 5 5 9 80 70 58 100 94 90 99 100 76 5 84 100 100 97 34 21 37 97 99 8 5 6 5 47 65 100
100 100 100 100 100 100 97 98 12 5 4 2 5 0 5 26 51 99 100 72 76 10 15 67 43 58 100 100 99 100 49 90 90 52 54 99 70 69 58 5 89 96 64
100 100 100 100 100 100 80 22 5 5 5 1 1 4 5 63 97 100 100 96 8 5 5 23 5 6 45 5 99 100 100 100 100 100 5 100 95 99 92 91 100 100 6

GFSMA_prec_cloud_048.txt.gz
Cloud_Cover
0 1 5 4 66 78 86 100 100 100 100 100 69 46 11 10 85 12 77 66 5 5 98 100 100 100 54 58 100 100 100 61 62 17 6 97 5 5 5 0 0 0 0
4 4 5 5 5 5 34 50 64 80 18 18 5 5 5 5 5 5 64 80 51 75 100 100 100 100 75 37 98 100 100 84 96 54 5 10 8 5 5 4 0 0 0
4 7 3 5 5 5 5 5 7 22 42 8 5 4 0 0 0 2 5 71 100 100 100 100 100 100 100 100 100 100 100 92 81 38 25 5 5 5 5 5 1 0 0
4 4 5 5 4 74 7 5 5 5 5 5 5 5 5 0 5 5 8 31 100 100 100 100 100 100 100 100 100 100 100 91 46 72 53 13 20 21 5 5 5 0 0
1 3 5 5 5 24 90 31 5 5 5 5 5 5 5 0 17 5 10 67 99 98 100 99 87 100 100 100 99 98 85 61 71 35 43 55 68 22 5 5 5 0 1
0 0 0 0 0 2 5 42 32 5 12 5 23 48 7 5 5 69 100 95 99 54 86 100 100 100 100 77 48 36 37 95 99 67 20 10 5 5 5 5 5 3 0
4 2 1 0 0 0 0 5 72 100 40 68 59 79 77 8 5 88 100 16 5 10 5 36 22 24 5 5 5 5 5 5 15 5 93 5 5 5 5 3 0 1 0
1 4 5 5 8 69 100 99 90 99 55 20 5 5 26 80 37 55 100 56 5 5 5 5 5 5 5 5 5 5 5 5 5 5 5 5 5 5 5 5 5 5 5
5 4 33 100 100 100 100 99 95 100 99 88 78 11 12 7 5 100 100 73 5 5 5 5 5 5 4 0 1 1 0 5 5 5 5 5 5 5 5 5 14 6 16
41 91 89 71 100 100 100 100 100 100 100 90 68 55 5 5 5 18 6 5 71 5 0 0 0 0 0 0 0 0 0 3 4 5 5 5 5 5 24 40 40 93 27
100 100 100 79 100 100 100 100 100 100 96 94 49 5 5 5 0 4 5 44 5 0 0 0 0 0 0 0 0 0 0 0 0 5 5 5 6 35 97 100 100 100 100
100 100 100 66 74 100 100 100 100 100 84 50 5 4 0 0 0 2 5 6 2 0 0 0 0 0 0 0 0 0 0 0 3 5 5 5 73 92 100 100 100 100 100
100 100 100 86 100 100 100 100 100 100 100 49 5 5 4 0 5 4 5 1 5 3 1 2 3 0 0 0 0 0 0 2 1 5 5 8 90 99 100 100 100 100 100
100 100 100 87 64 100 100 100 100 100 100 9 26 5 5 5 5 5 26 9 5 5 5 6 10 5 5 0 0 0 0 0 0 5 5 85 100 100 100 100 100 100 100
100 100 100 100 99 99 100 100 100 100 100 100 100 35 15 5 5 5 5 5 5 5 11 21 5 5 0 0 0 0 0 0 5 5 23 70 76 100 100 100 100 100 100
100 100 100 53 99 100 100 100 100 100 100 100 100 49 23 5 5 5 5 5 5 0 0 0 0 0 0 1 0 0 0 3 1 7 11 75 99 100 100 100 100 100 100
100 100 100 100 100 99 100 100 98 100 98 82 56 53 26 29 5 5 5 5 4 0 0 0 0 4 5 5 3 5 0 4 5 5 12 100 100 100 100 100 100 100 100
100 100 61 81 88 100 90 100 100 100 97 79 49 44 32 5 5 5 5 2 0 0 0 5 5 5 5 3 2 5 5 5 5 4 85 84 100 100 100 100 100 100 100
100 100 100 79 100 94 86 91 100 100 100 99 68 42 5 5 5 5 5 0 0 0 3 5 5 5 5 5 5 5 5 0 5 4 5 5 10 7 95 100 100 99 100
100 100 100 100 100 100 100 100 100 100 100 100 100 75 19 5 5 5 5 2 5 5 5 5 17 36 89 81 19 49 5 5 4 4 2 4 59 5 5 5 5 9 93
100 100 100 100 100 100 100 100 100 100 100 100 100 97 54 6 5 5 5 5 19 72 51 83 97 90 100 98 85 57 34 5 4 5 95 5 5 5 5 5 5 5 93
100 100 100 100 100 100 99 98 100 100 100 100 100 100 60 6 5 5 5 37 86 99 100 100 93 100 95 8 100 96 5 13 94 40 99 16 5 5 5 5 5 78 94
100 100 99 100 100 100 99 100 100 100 100 100 100 88 32 5 5 4 5 47 29 36 65 99 56 34 59 22 100 66 40 100 96 73 95 81 5 5 5 5 10 86 66
100 98 100 100 100 100 100 100 100 95 100 100 100 78 6 5 5 22 9 70 70 5 5 55 100 99 100 94 100 100 99 94 22 46 91 100 5 23 5 5 5 5 5
92 100 100 100 100 100 100 96 100 100 100 100 14 5 4 4 5 78 92 76 5 5 5 5 60 98 100 96 100 100 53 98 84 87 54 100 66 78 52 5 2 5 98
100 100 100 100 100 100 100 100 100 99 47 5 5 5 4 22 79 100 100 84 87 5 5 31 5 4 5 5 5 34 93 100 100 100 8 94 95 100 92 5 2 93 100

GFSMA_prec_cloud_051.txt.gz
Cloud_Cover
5 0 0 0 0 1 4 4 4 3 4 13 63 47 33 14 35 9 4 5 5 1 2 5 5 47 95 100 100 100 100 100 64 92 100 100 95 70 30 47 28 5 5
4 0 0 4 0 0 3 6 5 5 2 0 0 1 4 20 42 18 5 0 0 0 0 5 6 71 100 100 100 100 100 100 100 100 100 100 94 88 100 95 51 42 21
0 0 0 3 3 2 0 1 5 5 5 4 0 0 0 2 2 5 5 0 5 5 7 9 98 44 100 100 100 100 100 100 100 100 100 100 82 36 41 19 5 5 5
0 0 0 1 4 4 0 0 0 5 5 5 5 5 5 5 5 5 5 1 5 96 100 100 89 57 63 98 76 100 100 100 100 100 100 100 94 73 38 27 5 5 5
0 0 0 0 0 1 0 0 0 7 80 42 5 5 5 5 5 5 5 5 5 100 98 100 100 47 78 94 100 100 100 100 100 100 95 88 88 12 25 7 5 13 39
0 0 0 0 0 0 0 0 0 0 3 5 5 45 7 5 5 5 5 5 5 55 99 100 99 46 18 16 22 85 100 100 100 39 20 13 5 12 32 67 49 24 5
0 0 0 0 1 0 3 0 0 5 5 5 48 47 42 44 17 63 56 44 41 21 7 64 100 100 55 5 5 5 5 5 5 5 6 5 5 5 5 5 5 5 5
0 0 0 4 2 0 1 5 5 19 41 99 100 98 100 100 80 100 100 24 5 5 10 81 70 35 6 12 0 0 5 5 5 5 5 5 5 5 5 5 5 5 9
0 3 1 0 3 5 5 33 99 86 100 100 95 68 80 81 96 91 59 14 4 5 5 5 5 5 5 0 0 0 0 0 3 5 5 5 5 5 5 15 17 26 27
2 84 88 6 8 35 32 35 100 100 100 100 100 100 68 20 68 90 88 94 5 5 5 5 5 5 0 0 0 0 0 0 0 3 5 5 5 5 13 39 52 100 100
38 54 90 100 100 100 98 34 59 98 100 100 100 100 100 55 50 61 88 32 5 5 1 5 1 0 0 0 0 0 0 0 0 0 5 5 5 5 14 95 100 100 100
59 67 85 100 100 100 100 73 100 89 97 100 100 100 100 100 96 88 75 49 27 72 13 1 0 4 5 5 5 5 5 5 2 4 5 5 29 66 98 100 100 100 100
80 9 79 100 100 100 100 93 100 72 89 100 100 100 100 100 100 100 73 65 93 97 50 5 5 5 5 5 5 5 5 3 0 0 5 5 52 100 97 100 100 100 100
86 5 100 100 100 100 100 73 99 99 100 100 100 100 100 100 94 91 59 16 41 83 100 77 39 5 5 0 0 0 0 0 0 5 5 49 98 100 100 100 100 100 100
100 49 89 100 100 100 100 100 85 100 100 100 100 74 100 100 100 100 100 100 30 75 100 100 78 24 5 2 0 0 0 0 5 5 12 86 100 99 100 100 100 100 100
100 100 100 100 100 100 84 99 100 89 93 100 73 99 100 100 78 89 91 91 25 5 15 5 8 6 5 4 0 0 0 0 1 5 56 91 98 100 100 100 100 100 100
100 100 100 100 100 100 100 96 100 81 100 76 96 100 90 100 100 100 100 97 76 7 5 9 4 0 0 0 0 0 0 0 2 5 5 44 100 100 100 98 100 100 100
100 100 100 100 100 100 100 100 100 100 81 99 94 83 100 98 100 91 97 100 96 42 5 5 4 1 4 5 5 5 5 5 5 2 5 95 39 100 99 100 100 100 100
100 100 100 100 100 100 100 100 100 51 93 100 81 86 70 80 83 42 38 35 41 5 5 5 5 5 5 5 5 5 5 5 5 5 5 5 5 24 100 100 100 100 100
100 100 100 100 100 100 100 100 100 69 91 100 90 73 94 72 82 19 5 5 5 5 5 5 32 5 13 32 13 74 12 5 5 5 5 5 37 8 11 5 18 7 27
100 100 100 100 100 100 100 100 65 94 100 98 98 82 79 100 88 5 14 5 5 5 6 91 82 51 88 94 80 8 58 5 5 5 29 46 5 5 5 5 5 5 79
100 100 100 100 100 100 100 88 88 100 98 100 100 99 100 100 96 56 5 5 41 64 100 100 99 98 91 33 5 79 5 5 82 5 99 84 6 5 5 5 9 97 93
100 100 100 100 100 98 78 92 100 100 100 100 100 100 100 100 99 83 56 5 38 46 92 73 16 8 72 25 10 20 60 100 98 15 76 99 5 5 5 5 5 16 98
100 100 100 100 100 99 99 94 100 100 100 100 100 100 100 100 100 72 22 99 88 19 5 29 75 87 73 85 100 100 96 91 12 5 9 99 58 47 5 5 5 5 5
100 100 100 100 99 100 100 100 100 100 100 100 100 100 100 61 5 23 98 75 85 5 5 5 11 82 96 68 65 99 12 90 86 36 5 96 11 6 67 5 3 2 5
100 100 100 100 100 100 100 100 100 100 100 100 99 38 5 5 57 92 100 100 85 17 7 29 5 3 1 3 5 5 75 100 100 98 29 93 72 95 100 5 5 5 2

GFSMA_prec_cloud_054.txt.gz
Cloud_Cover
2 5 9 11 9 0 0 0 5 5 5 4 0 0 1 4 5 5 5 5 0 1 4 4 3 0 0 0 3 5 5 5 11 99 100 100 100 100 100 100 100 100 98
0 5 5 0 0 0 2 2 0 2 5 5 5 2 0 0 0 0 0 0 0 0 0 0 0 4 0 2 6 7 5 5 5 75 100 100 100 100 100 100 100 100 100
0 2 3 0 0 0 5 4 2 0 0 0 5 5 3 5 5 5 5 5 5 5 5 0 1 5 95 99 100 91 43 5 5 11 73 100 100 100 100 100 100 100 100
0 0 0 0 0 0 0 0 0 0 0 0 0 27 5 5 5 5 5 5 5 5 5 5 0 5 78 100 98 100 100 5 5 21 74 98 100 100 100 100 100 100 100
0 0 0 0 0 0 0 0 0 0 0 0 0 4 4 16 89 16 5 5 42 40 5 5 5 5 46 58 100 100 100 92 71 5 5 35 100 100 100 100 99 36 79
2 0 0 0 0 0 0 0 0 0 0 0 4 5 5 48 54 74 74 46 6 52 41 56 74 9 5 5 6 79 71 28 30 12 5 5 33 95 100 52 10 62 45
1 0 0 4 0 0 0 0 0 0 0 5 5 25 65 78 82 99 100 100 100 100 98 100 100 93 11 5 5 82 86 35 5 5 1 5 4 5 5 5 5 5 5
86 57 5 6 5 5 5 0 1 3 5 5 5 6 39 89 98 73 100 100 100 97 100 100 80 96 39 5 5 5 5 5 4 0 5 4 5 5 5 5 5 5 0
54 29 5 8 26 65 65 30 14 5 34 6 5 36 96 100 94 100 100 100 100 100 100 100 100 64 48 5 3 0 4 4 0 0 5 5 5 5 5 8 11 35 32
5 35 18 56 100 100 83 54 57 54 82 22 13 5 80 100 100 100 100 100 72 85 87 85 69 42 66 5 5 5 2 0 0 2 5 5 5 5 5 28 46 90 100
93 93 100 100 100 100 98 100 100 98 100 51 65 57 60 86 100 100 100 100 100 100 100 100 62 10 6 5 5 5 5 0 0 5 5 5 5 5 9 38 57 88 100
4 10 100 100 100 100 82 100 100 100 100 49 100 43 68 76 96 97 100 100 100 100 100 59 7 46 67 33 12 5 5 5 5 5 5 5 5 5 25 96 90 100 99
15 67 90 100 100 100 100 100 100 100 100 86 100 60 100 8 33 92 100 100 100 100 100 100 96 15 5 12 5 5 5 5 5 5 5 5 5 5 46 82 99 100 100
4 5 63 100 100 100 100 100 100 100 100 51 100 67 92 45 5 6 10 82 94 100 100 100 100 100 100 100 96 20 6 5 5 5 5 5 28 43 92 98 99 100 100
1 9 81 100 100 100 100 100 100 100 38 100 72 100 100 34 56 5 5 5 5 20 92 100 100 100 100 100 100 90 22 6 5 5 5 5 35 93 98 100 100 100 79
2 48 100 100 100 100 100 100 100 100 100 97 96 100 70 100 57 31 16 5 5 5 4 5 58 82 97 99 93 72 22 5 5 5 5 39 92 98 100 100 100 100 100
46 100 100 100 100 100 100 100 100 100 98 100 100 100 100 88 92 66 6 5 5 5 4 5 5 5 18 5 5 5 5 5 5 4 5 69 95 100 100 100 100 100 100
100 100 100 100 100 100 100 100 100 100 100 100 100 100 100 99 66 69 5 5 5 5 5 4 5 5 5 5 2 0 1 5 5 5 5 91 99 85 100 100 100 100 100
100 100 100 100 100 100 100 100 100 100 100 100 95 100 99 77 73 14 60 5 10 35 38 6 5 5 13 24 5 5 5 5 5 5 5 5 5 29 95 100 100 100 100
100 100 100 100 100 100 100 100 100 100 100 100 100 100 100 67 95 82 67 93 68 96 93 42 66 93 15 5 5 5 20 5 5 5 5 5 28 24 5 18 20 5 5
100 100 100 100 100 100 100 100 100 100 100 100 100 100 91 72 76 83 57 69 78 100 100 100 100 23 18 25 5 5 24 5 5 5 5 93 5 5 5 5 5 5 41
100 100 100 100 100 100 100 100 100 100 95 72 95 96 68 50 38 58 54 91 100 100 100 100 88 64 13 5 5 16 65 79 93 7 5 34 5 5 5 5 5 81 100
100 100 100 100 100 100 100 100 96 100 100 100 95 23 62 62 69 77 100 100 100 100 85 93 96 15 5 5 45 76 82 100 100 16 9 96 5 5 5 5 5 5 84
100 100 100 100 100 100 100 100 100 100 96 44 43 57 69 81 100 100 100 100 41 21 40 8 5 38 82 90 100 100 87 70 16 5 5 99 5 5 5 5 5 5 5
100 100 100 100 100 100 100 100 84 70 96 100 88 96 100 100 100 94 89 99 94 18 34 5 6 76 80 63 33 87 12 90 92 80 5 80 11 5 5 5 5 5 5
100 100 100 100 100 100 95 38 98 99 96 99 89 34 15 5 13 96 100 100 73 19 15 62 5 4 0 0 5 5 25 100 100 100 5 65 65 47 92 5 35 14 4

GFSMA_prec_cloud_057.txt.gz
Cloud_Cover
39 30 24 24 18 4 1 0 0 0 0 0 0 3 5 5 5 2 0 0 0 0 2 2 0 0 0 0 0 0 0 5 5 5 5 5 5 13 61 100 100 100 100
14 28 26 26 17 5 0 0 0 3 0 0 0 0 1 5 5 1 4 0 4 5 0 4 2 1 0 0 0 5 59 14 75 92 82 5 5 5 11 69 100 100 100
0 1 8 13 2 1 0 0 0 0 0 0 0 0 0 0 5 5 5 5 0 5 5 5 5 5 5 0 0 5 74 68 88 38 73 27 5 5 5 62 100 100 100
0 0 0 0 0 0 0 0 0 0 0 0 0 0 0 0 0 0 2 5 5 5 5 5 5 5 5 5 5 5 77 100 61 100 100 93 5 5 5 5 9 93 100
4 0 0 0 0 0 0 1 1 0 0 0 0 0 0 2 4 5 5 5 5 5 5 5 5 5 5 5 5 10 27 30 38 40 49 100 93 5 5 5 5 33 68
5 4 2 4 5 3 3 1 2 0 0 0 0 2 2 5 5 5 66 52 8 39 64 74 28 8 8 46 92 100 78 100 34 6 4 5 5 5 5 5 5 4 13
13 55 0 5 32 22 5 78 9 11 4 2 3 5 4 0 2 14 5 18 34 60 31 64 44 62 99 100 100 100 96 40 93 53 96 5 5 5 5 5 2 4 5
6 10 16 5 9 14 5 16 58 57 24 4 1 5 5 3 5 5 5 5 5 51 100 85 83 72 100 100 100 100 100 100 99 56 21 5 5 5 5 5 6 7 5
5 39 18 9 24 49 59 86 100 91 91 5 18 11 0 4 5 5 5 5 5 6 54 91 100 89 85 100 100 100 100 100 100 100 97 49 5 5 5 5 6 7 80
5 5 5 15 97 100 100 100 100 100 53 69 95 54 5 9 9 5 5 5 5 66 54 62 71 87 78 89 46 62 81 62 52 82 93 62 43 5 5 8 17 38 70
7 5 37 67 33 100 100 100 100 100 100 100 100 100 100 43 60 67 100 26 5 7 100 99 100 100 99 100 100 100 100 100 100 91 7 7 5 5 5 13 21 20 100
6 22 15 65 97 89 100 100 100 100 100 100 100 100 100 57 46 5 29 44 5 5 5 5 14 16 68 94 100 100 100 100 100 100 100 100 100 73 9 20 32 30 8
80 58 85 56 86 88 97 100 100 100 100 100 100 100 100 100 100 83 40 37 8 71 79 23 20 5 5 3 23 40 71 77 28 15 26 87 95 84 27 7 33 70 84
86 43 50 40 65 94 100 100 100 100 100 100 100 100 100 100 100 74 66 44 24 5 14 100 83 9 5 5 5 0 1 4 5 5 5 8 15 20 6 46 91 99 97
97 55 24 42 56 99 100 100 100 100 100 100 100 100 100 100 100 84 89 71 42 11 85 91 100 41 5 5 5 4 0 0 5 5 5 5 5 8 56 79 91 96 99
1 3 6 60 93 100 100 100 100 100 100 100 100 100 100 100 80 65 56 98 100 19 30 69 20 5 5 5 5 0 0 5 5 5 5 5 46 97 100 100 100 100 98
5 4 2 10 90 100 100 100 100 100 100 100 100 100 100 100 92 100 75 72 100 99 22 5 5 5 11 5 4 4 4 5 4 5 5 8 95 100 100 100 100 100 100
18 29 55 90 100 100 100 100 100 100 100 100 100 100 100 100 100 100 97 100 99 97 34 5 5 5 5 5 5 5 5 9 21 5 5 88 89 75 99 100 100 100 100
83 73 99 100 100 100 100 100 100 100 100 100 100 100 100 100 100 97 100 100 100 100 100 64 7 7 5 5 5 5 5 5 5 3 4 5 5 5 97 96 100 100 100
100 100 100 100 100 100 100 100 100 100 100 100 100 100 100 100 100 100 100 100 93 100 79 39 6 14 5 5 7 6 8 5 5 2 5 5 5 5 6 5 5 5 8
100 100 100 100 100 100 100 100 100 100 100 100 100 100 100 100 100 100 100 100 95 52 98 97 90 28 65 5 10 5 10 5 5 5 5 5 5 5 5 5 5 5 5
100 100 100 100 100 100 100 100 100 100 100 100 100 100 100 100 99 100 90 24 97 99 73 74 61 57 37 5 5 5 29 92 99 8 5 52 5 5 5 5 5 5 60
100 100 100 100 100 100 100 100 100 100 100 100 100 100 100 100 76 63 96 100 71 99 61 76 54 5 5 5 8 27 97 97 100 47 5 65 5 5 3 1 4 5 5
100 100 100 100 100 100 100 100 100 100 100 100 100 98 96 62 100 100 100 99 18 19 5 11 5 25 65 87 100 100 99 73 33 5 5 81 5 5 3 5 5 5 5
100 100 100 100 100 100 100 100 100 100 100 100 100 97 100 100 100 94 8 82 88 5 5 5 5 32 38 44 23 46 8 94 96 81 14 17 12 5 5 5 3 6 65
100 100 100 100 100 100 100 100 100 100 100 98 99 99 100 72 46 83 98 87 8 5 14 13 5 3 0 0 5 5 5 100 100 99 36 55 78 76 46 5 5 5 100

GFSMA_prec_cloud_060.txt.gz
Cloud_Cover
26 38 30 23 20 18 5 7 0 0 0 0 0 0 0 0 0 0 0 0 0 0 0 0 0 0 0 0 0 0 0 0 0 0 0 2 5 5 5 5 5 5 62
16 42 37 32 22 14 6 5 0 0 1 0 0 0 0 0 0 0 2 5 2 0 0 0 0 0 1 0 2 5 2 0 0 3 5 5 5 16 53 5 5 5 32
0 20 39 38 25 17 5 5 0 0 0 0 0 0 0 0 0 0 0 0 0 0 2 5 0 2 5 5 5 5 5 5 4 5 29 5 66 47 95 98 52 5 5
5 8 35 28 19 16 2 0 0 0 0 0 0 0 0 0 0 0 0 1 5 2 1 0 0 3 5 5 5 5 81 93 9 5 5 34 64 61 25 75 100 13 5
5 5 5 8 2 4 3 4 1 1 5 5 4 1 1 0 2 5 5 4 5 5 5 5 5 5 5 5 5 14 93 100 100 96 96 100 100 65 5 4 5 5 5
38 40 18 6 4 5 4 3 4 0 0 5 5 4 5 5 4 3 0 4 5 5 5 5 5 5 5 5 6 51 99 100 100 100 100 100 100 66 43 5 5 5 5
11 5 5 21 83 28 5 4 2 0 0 0 5 5 5 5 5 4 2 4 5 0 0 0 5 5 5 5 5 22 80 35 100 100 100 100 100 100 100 86 12 5 5
17 95 59 64 75 89 78 5 5 5 8 10 11 38 5 5 5 2 5 5 5 5 5 3 0 3 5 5 5 21 50 5 11 94 100 100 100 100 100 100 52 76 42
6 74 57 47 94 98 88 27 89 24 72 47 96 59 16 41 64 10 5 5 5 5 5 5 2 0 1 1 5 5 5 5 5 5 5 41 62 71 96 95 100 100 61
15 5 5 44 56 87 70 85 98 100 100 100 100 100 99 99 99 100 90 58 5 5 5 5 5 5 0 0 0 2 5 5 5 5 5 5 5 5 7 12 28 71 100
87 37 7 69 100 100 70 92 100 95 61 100 100 100 100 100 100 100 100 100 100 100 100 71 5 5 2 0 0 0 0 0 0 2 8 27 40 66 8 6 7 15 30
99 86 90 82 98 100 100 100 99 98 99 100 94 100 100 100 100 100 100 100 100 100 100 100 85 23 5 5 5 5 1 2 2 2 5 5 5 5 5 8 7 23 11
100 100 97 33 37 95 100 100 93 75 100 100 100 100 100 100 100 100 100 100 100 100 100 100 100 19 5 5 61 26 4 5 5 5 5 5 5 5 5 6 8 18 62
100 100 100 100 100 100 99 100 98 100 100 100 100 100 100 100 100 100 100 100 100 100 100 100 100 11 79 13 87 46 5 5 5 5 5 5 5 5 5 3 6 29 83
47 99 100 100 100 90 97 100 100 100 100 100 100 100 100 100 100 100 100 100 100 100 100 100 100 71 94 97 94 41 5 4 5 5 5 5 5 5 20 26 78 44 89
70 100 100 100 98 100 100 100 100 100 100 100 100 100 100 100 100 100 100 100 100 100 100 100 100 100 99 100 99 63 30 76 91 5 5 5 18 93 100 98 99 98 100
94 100 100 100 100 100 100 100 100 100 100 100 100 100 100 100 100 100 100 100 100 100 100 77 100 100 100 100 100 78 32 11 5 5 5 5 75 100 94 98 100 100 100
100 100 100 100 100 100 100 100 100 100 100 100 100 100 100 100 100 100 100 100 100 100 93 96 93 100 100 100 62 12 7 5 11 5 5 8 61 29 60 92 100 100 100
100 100 100 100 100 100 100 100 100 100 100 100 100 100 100 100 100 100 100 100 100 100 83 93 100 100 57 27 17 5 5 5 5 5 4 5 5 5 8 85 100 96 96
100 100 100 100 100 100 100 100 100 100 100 100 100 100 100 100 100 100 100 100 100 100 100 100 99 55 7 5 5 7 5 5 5 5 5 5 5 5 5 5 5 5 5
100 100 100 100 100 100 100 100 100 100 100 100 100 100 100 100 100 100 100 100 100 100 100 100 34 79 88 5 9 5 7 5 24 5 5 5 5 4 5 5 5 5 5
100 100 100 100 100 100 100 100 100 100 100 100 100 100 100 100 100 100 100 100 100 100 100 100 100 83 54 7 30 5 5 78 92 8 5 5 5 5 5 5 5 5 5
100 100 100 100 100 100 100 100 100 100 100 100 100 100 100 100 100 98 97 100 100 100 91 82 88 35 31 11 8 34 95 98 96 74 22 68 5 5 5 0 0 5 5
100 100 100 100 100 100 100 100 100 100 100 100 100 100 100 100 100 100 100 100 100 86 92 100 45 59 5 81 100 100 96 69 43 17 5 84 5 5 5 5 10 68 91
100 100 100 100 100 100 100 100 100 100 100 100 97 100 100 100 100 100 79 100 100 100 100 65 5 14 35 24 10 5 5 91 90 76 15 90 8 6 5 17 100 100 100
100 100 100 100 100 100 100 100 100 100 99 100 100 100 88 91 100 100 100 100 100 94 21 5 5 2 0 0 5 5 5 100 100 93 5 97 44 98 50 5 56 100 100

GFSMA_prec_cloud_066.txt.gz
Cloud_Cover
1 9 9 0 0 0 0 0 0 0 0 0 0 0 0 0 0 0 0 0 5 0 0 0 0 0 0 0 0 0 0 0 0 0 0 0 0 0 0 0 5 4 5
5 5 63 74 6 0 0 0 0 0 3 2 0 0 0 0 0 0 0 1 6 0 0 0 0 0 0 0 0 0 0 0 0 0 0 3 2 3 4 5 47 5 10
4 5 4 52 97 0 0 0 0 0 4 3 0 0 0 0 0 0 0 0 0 0 0 0 0 0 0 0 0 0 0 0 0 0 0 5 5 5 5 75 93 100 69
5 4 5 6 19 74 2 1 5 5 5 5 5 3 0 0 0 0 4 0 0 0 0 0 0 0 0 0 5 5 1 0 2 5 4 5 5 5 5 85 100 100 98
4 5 5 5 5 100 45 5 11 48 64 5 4 5 3 4 3 4 5 5 5 5 5 0 0 0 5 0 4 3 0 0 0 0 0 1 4 5 5 6 15 97 100
5 5 5 5 4 80 98 63 45 69 60 12 5 16 27 6 5 5 5 5 5 5 5 4 0 2 0 0 0 0 0 0 0 0 0 0 1 5 4 4 4 7 100
7 5 5 5 5 8 100 100 100 100 100 100 100 100 100 52 28 5 6 5 5 5 7 5 4 3 5 5 0 0 0 0 0 0 0 0 0 4 16 28 2 1 5
30 15 85 91 98 70 77 99 100 100 100 100 100 100 100 100 58 10 26 33 46 50 74 81 84 10 6 35 5 4 4 5 5 5 5 4 5 5 5 56 5 2 1
100 100 89 100 100 82 12 25 100 100 100 100 100 100 100 100 100 100 21 61 78 96 100 100 91 100 100 69 33 44 57 56 5 5 5 6 100 93 94 6 5 5 5
100 100 100 100 100 100 100 80 99 100 100 100 100 100 99 73 98 67 86 50 44 100 100 100 100 100 94 100 60 78 84 45 7 5 47 33 39 100 100 76 9 8 36
100 100 100 100 100 100 100 100 100 100 100 82 100 100 100 100 96 96 82 100 100 100 100 100 100 100 100 47 6 6 7 98 20 50 22 6 59 100 76 100 92 88 39
100 100 100 100 100 100 100 100 100 100 100 100 100 100 100 100 100 100 100 100 100 100 100 100 100 100 100 100 62 72 93 12 78 6 5 19 76 45 5 35 44 5 5
100 100 100 100 100 100 100 100 100 100 100 100 100 100 100 100 100 100 100 100 100 100 100 100 100 100 100 100 100 100 98 100 63 75 6 38 5 7 16 80 18 5 5
100 100 100 100 100 100 100 100 100 100 100 100 100 100 100 100 100 100 100 100 100 100 100 100 100 100 100 100 100 100 100 100 98 100 92 98 100 98 99 31 5 5 1
100 100 100 100 100 100 100 100 100 100 100 100 100 100 100 100 100 100 100 100 100 100 100 100 100 99 100 100 100 100 100 100 100 100 100 100 61 6 5 5 5 5 5
100 100 100 100 100 100 100 100 100 100 100 100 100 100 100 100 100 100 100 100 100 100 100 100 100 100 100 100 100 100 100 100 100 100 100 47 5 8 5 5 5 5 64
92 100 100 100 100 100 100 100 100 100 100 100 100 100 100 100 100 100 100 100 100 100 100 100 100 100 100 100 100 100 100 100 47 97 93 63 28 5 28 8 64 74 99
96 100 86 100 100 100 100 100 100 100 100 100 100 100 100 100 100 100 100 100 100 100 100 100 100 100 100 100 100 100 100 100 67 100 64 17 16 12 7 5 5 12 73
91 100 100 100 100 100 100 100 100 100 100 100 100 100 100 100 100 100 100 100 100 100 100 100 100 100 100 100 100 100 100 100 54 64 58 5 7 5 5 5 5 45 18
100 100 100 100 100 100 100 100 100 100 100 100 100 100 100 100 100 100 100 100 100 100 100 100 100 100 100 100 100 100 100 100 100 100 54 17 21 28 5 5 5 5 5
100 100 100 100 100 100 100 100 100 100 100 100 100 100 100 100 100 100 100 100 100 100 100 100 100 100 100 100 100 100 90 82 97 95 59 88 28 5 5 5 5 5 5
100 100 100 100 100 100 100 100 100 100 100 100 100 100 100 100 100 100 100 100 100 100 100 100 100 93 84 92 100 99 83 96 100 92 63 60 20 5 5 5 5 5 5
100 100 100 100 100 100 100 100 100 100 100 100 100 100 100 100 100 100 100 100 100 100 100 100 100 100 89 84 69 79 100 100 98 47 86 66 5 5 5 5 5 5 5
100 100 100 100 100 100 100 100 100 100 100 100 100 100 100 100 100 98 100 100 100 100 100 100 61 65 65 75 98 97 96 91 77 23 93 77 16 38 6 5 5 5 5
100 100 100 100 100 100 100 100 100 100 100 100 100 100 100 100 100 100 100 100 100 100 100 100 100 100 92 100 43 42 70 91 87 34 64 66 26 90 33 5 5 5 5
100 100 100 100 98 100 100 100 100 100 100 100 100 100 100 100 100 100 100 100 100 100 100 100 99 64 5 5 5 5 64 100 100 89 31 70 46 92 97 5 5 5 5

GFSMA_prec_cloud_072.txt.gz
Cloud_Cover
5 5 5 5 3 0 0 0 0 0 0 0 0 0 0 0 0 0 0 0 2 3 4 5 4 3 0 0 0 5 5 5 5 0 0 0 0 0 0 0 0 0 0
5 5 5 5 5 4 0 0 0 7 0 0 0 3 0 0 0 0 5 5 5 5 5 5 5 1 1 4 5 5 5 5 5 5 0 0 0 0 0 0 0 0 0
5 5 5 5 5 5 4 5 1 0 0 0 0 0 0 2 5 5 5 5 5 5 5 5 5 73 87 71 13 5 5 5 5 5 1 5 0 0 0 0 0 0 0
5 5 5 5 4 5 1 0 0 0 0 0 0 7 5 5 7 5 5 34 98 100 100 100 100 97 33 6 5 6 5 5 5 5 5 4 0 0 0 0 0 0 11
7 5 5 2 4 4 0 0 0 2 5 5 5 10 5 17 18 90 85 5 98 86 100 100 65 73 50 48 100 7 5 5 5 5 1 0 0 3 3 5 2 0 2
5 5 5 5 0 3 5 4 5 5 5 7 5 20 92 44 100 100 100 76 10 44 100 100 80 100 100 100 100 51 20 5 5 4 0 4 5 5 5 5 4 3 0
7 5 5 5 5 5 1 5 5 5 5 5 23 65 74 100 100 100 99 100 96 74 100 100 100 100 100 100 100 100 90 5 5 5 5 5 5 15 34 36 5 5 0
6 5 5 5 5 5 5 15 5 63 98 30 7 22 44 70 100 100 100 100 100 100 75 98 100 100 100 100 100 100 100 100 98 10 43 11 31 7 38 46 5 5 5
5 5 5 5 39 16 17 28 70 100 99 100 89 44 89 94 100 100 100 100 100 100 100 100 100 100 100 100 100 100 100 100 87 98 100 90 31 93 5 72 43 5 5
5 5 12 11 61 99 85 100 98 100 100 100 99 100 100 100 100 100 100 100 100 100 100 100 100 100 100 100 100 100 100 100 64 100 100 100 100 82 5 98 14 5 5
5 5 2 9 96 84 73 75 97 100 100 100 100 100 100 100 100 100 100 100 100 100 100 100 100 100 100 100 100 100 100 100 100 100 100 100 100 99 99 98 100 85 89
7 69 74 99 94 100 100 100 100 100 76 100 100 100 100 100 100 100 100 100 100 100 100 100 100 100 100 100 100 100 100 100 100 100 100 91 66 100 100 100 100 87 98
73 76 98 100 100 100 100 100 100 100 100 100 100 100 100 100 100 100 100 100 100 100 100 100 100 100 100 100 100 100 100 100 100 100 100 100 100 100 100 100 96 90 66
41 78 100 100 100 100 100 100 100 100 100 100 100 100 100 100 100 100 100 100 100 100 100 100 100 100 100 100 100 100 100 100 100 100 100 100 100 100 100 100 88 35 54
100 100 99 100 100 100 100 100 100 100 100 100 100 100 100 100 100 100 100 100 100 100 100 100 100 100 100 100 100 100 100 100 100 100 100 100 100 100 100 96 94 38 6
86 99 82 37 61 100 100 100 100 100 100 100 100 100 100 100 100 100 100 100 100 100 100 100 100 100 100 100 100 100 100 100 100 100 100 100 100 100 100 95 84 100 99
37 21 26 97 100 100 68 91 86 100 100 100 100 100 100 100 100 100 100 100 100 100 100 100 100 100 100 100 100 100 100 100 100 100 100 100 95 86 99 100 100 100 100
74 78 50 65 77 63 60 98 100 100 100 100 100 100 100 100 100 100 100 100 100 100 100 100 100 100 100 100 100 100 100 100 100 93 53 36 66 86 100 98 100 99 100
16 23 0 0 4 6 54 98 100 100 100 100 100 100 100 100 100 100 100 100 100 100 100 100 100 100 100 97 98 100 100 100 98 76 75 100 94 91 92 88 86 83 82
0 0 0 1 19 72 76 87 98 100 100 100 100 100 100 100 100 100 100 100 100 100 100 100 100 100 100 100 100 100 100 100 100 96 100 99 8 67 91 74 24 73 100
23 79 72 90 61 72 52 72 84 100 100 100 100 100 100 100 100 100 100 100 100 100 100 100 100 100 100 100 100 100 100 100 100 86 99 85 91 100 96 99 27 5 5
100 100 100 96 85 76 83 93 44 100 100 100 100 100 100 100 100 100 100 100 100 100 100 100 100 100 100 100 100 100 100 100 100 92 100 100 100 99 44 5 2 5 5
100 100 100 100 100 100 100 86 41 58 91 93 100 99 100 99 100 100 100 100 100 100 100 100 100 100 100 100 100 100 100 100 100 88 47 85 5 5 5 1 0 5 5
100 100 100 100 100 100 100 90 62 80 100 85 64 64 76 100 100 100 100 100 100 100 100 100 100 100 100 100 100 100 100 94 8 5 5 27 3 3 0 2 0 4 5
100 100 99 39 51 37 66 18 10 6 6 5 11 94 100 100 100 100 100 100 100 100 100 100 100 100 100 100 100 75 20 10 8 18 5 15 5 5 4 1 2 0 5
96 81 21 5 5 5 5 5 1 4 3 2 1 4 5 5 52 63 5 5 5 5 5 5 5 5 5 5 4 5 5 5 94 76 6 17 27 79 48 5 5 4 4

GFSMA_prec_cloud_075.txt.gz
Cloud_Cover
0 0 0 0 1 4 5 5 6 2 0 0 0 0 0 0 0 0 0 0 0 0 0 0 0 5 5 5 5 5 47 96 24 5 5 5 5 4 4 1 0 0 1
4 5 3 32 9 5 5 5 5 3 0 1 0 0 0 0 0 0 0 0 0 0 0 5 5 5 5 6 63 97 100 100 17 81 5 5 5 5 5 0 0 0 0
0 0 61 10 5 5 5 5 4 3 5 5 1 0 5 0 0 0 5 5 2 5 5 5 5 5 49 60 60 100 81 29 5 5 5 5 5 5 5 0 0 0 0
5 5 37 5 5 9 5 5 5 5 5 5 0 3 0 2 3 2 5 10 25 68 5 5 5 34 45 100 36 40 96 5 5 5 5 5 5 5 0 0 0 0 4
5 5 22 27 91 17 5 5 5 2 0 0 0 0 0 4 5 5 5 53 68 45 59 26 21 96 70 100 100 100 92 93 44 33 34 5 5 3 0 0 0 1 1
76 92 93 90 26 9 5 5 5 0 0 0 0 0 0 2 5 14 79 53 70 100 100 100 98 86 100 91 35 100 100 100 88 5 42 40 7 5 4 2 2 13 2
12 49 100 67 5 5 5 5 5 3 4 3 0 1 1 5 15 68 81 95 100 100 100 100 100 100 100 100 100 100 100 100 99 100 100 100 100 49 14 5 4 2 5
100 100 96 30 31 6 5 5 5 5 9 47 18 26 20 30 97 96 90 100 100 100 100 100 100 100 100 100 100 100 100 100 100 100 100 100 100 96 39 5 5 5 5
100 100 97 100 93 65 5 5 5 5 5 24 23 13 20 6 34 89 100 100 100 100 100 100 100 100 100 100 100 100 100 100 100 100 100 100 100 98 12 30 96 100 100
96 99 100 100 29 5 5 5 54 46 91 90 96 100 100 100 74 66 100 100 100 100 100 100 100 100 100 100 100 100 100 100 100 100 100 100 99 100 100 100 95 35 62
100 77 96 29 47 81 25 27 45 78 58 62 100 100 100 100 100 100 100 100 100 100 100 100 100 100 100 100 100 100 100 100 100 100 100 100 100 100 84 100 96 63 100
26 85 26 72 92 41 22 84 98 100 100 100 100 100 100 92 100 100 100 100 100 100 100 100 100 100 100 100 100 100 100 100 100 100 100 100 100 100 100 96 89 100 100
98 28 12 36 5 20 39 100 100 100 100 100 70 100 100 100 100 100 100 100 100 100 100 100 100 100 100 100 100 100 100 100 100 100 100 100 100 100 100 100 100 100 100
78 98 79 98 81 100 100 100 100 100 100 100 98 100 100 100 100 100 100 100 100 100 100 100 100 100 100 100 100 100 100 100 100 100 100 100 100 100 100 100 100 100 100
41 27 100 81 100 100 100 46 98 100 100 100 100 100 100 100 100 100 100 100 100 100 100 100 100 100 100 100 100 100 100 100 100 100 100 100 100 100 100 100 100 100 100
100 100 92 37 98 43 16 72 62 82 90 100 100 100 100 100 100 100 100 100 100 100 100 100 100 100 100 100 100 100 100 100 100 100 100 100 100 100 100 100 100 100 100
100 100 86 65 78 44 74 73 88 99 99 100 100 100 100 100 100 100 100 100 100 100 100 100 100 100 100 100 100 100 100 100 100 100 100 100 100 100 100 100 100 100 100
100 99 97 83 98 75 49 98 100 98 100 100 100 100 100 100 100 100 100 100 100 100 100 100 100 100 100 100 100 100 100 100 100 100 100 100 100 100 100 100 97 30 99
100 100 84 100 81 86 5 3 0 15 63 100 100 100 100 100 100 100 100 100 100 100 100 100 100 100 100 100 100 100 100 83 92 100 100 100 100 100 98 87 77 32 17
98 100 93 59 10 5 0 0 0 21 47 85 100 100 100 100 100 100 100 100 100 100 100 100 100 100 100 100 93 100 97 100 100 100 100 100 100 99 93 35 68 100 69
94 77 36 21 68 30 70 12 44 73 100 100 100 100 100 100 100 100 100 100 100 100 100 100 100 99 95 100 100 100 100 100 100 100 100 100 98 57 5 24 16 5 5
100 100 100 99 70 99 80 47 16 86 56 90 72 100 100 100 100 100 100 100 100 100 100 100 100 100 100 99 99 100 100 96 98 100 100 65 100 99 99 32 5 5 5
100 100 100 100 100 100 100 95 33 12 24 62 80 55 36 71 95 63 58 18 42 76 71 92 100 100 100 100 100 100 100 100 100 100 100 100 94 29 5 5 4 5 5
100 100 100 100 100 100 100 94 68 49 25 22 26 20 9 5 5 5 5 13 33 26 40 34 29 39 47 52 51 54 52 42 34 22 9 38 5 5 5 3 2 5 5
100 100 96 44 10 7 4 5 6 5 5 5 5 5 3 4 22 80 5 6 5 5 5 4 2 7 33 45 62 22 5 5 13 5 5 58 5 6 5 5 4 4 5
41 30 13 5 2 5 5 5 5 5 3 3 4 0 5 5 5 11 5 5 2 0 4 5 5 5 5 4 5 19 11 5 66 53 8 69 96 85 60 5 5 5 5

GFSMA_prec_cloud_078.txt.gz
Cloud_Cover
5 2 4 7 6 6 5 11 17 14 5 5 0 0 1 0 5 5 8 5 2 0 0 0 0 4 5 5 5 5 5 5 98 100 100 100 96 37 65 5 5 5 0
5 5 2 3 10 7 5 1 5 6 5 4 4 4 3 5 5 5 3 0 0 0 0 0 5 5 5 26 43 92 5 68 100 100 100 79 95 45 5 5 5 5 5
5 5 5 0 0 4 0 0 2 4 5 5 5 5 3 5 5 0 0 3 0 0 0 1 5 5 99 23 98 93 73 100 100 100 96 100 91 5 6 6 5 5 1
14 5 5 5 4 4 5 5 5 14 5 4 0 2 5 0 0 0 0 8 3 0 2 5 98 92 100 100 100 100 86 100 100 100 100 100 100 92 5 74 5 5 5
5 5 5 5 5 5 10 6 96 6 5 4 5 5 0 0 1 5 2 2 4 3 10 47 100 100 100 100 100 99 100 100 100 100 100 100 100 67 36 100 38 7 5
5 10 12 34 53 80 98 100 100 89 31 5 17 5 5 5 5 5 3 5 6 73 100 100 100 100 100 100 100 100 100 100 100 100 100 100 100 95 100 100 69 64 12
6 63 49 63 84 100 100 100 97 57 95 44 8 5 5 10 9 5 5 74 100 100 100 100 100 100 100 100 100 100 100 100 100 100 100 100 100 100 100 100 100 100 100
53 80 100 92 99 100 94 52 100 100 94 12 61 90 87 25 38 14 53 75 98 100 91 100 100 100 100 100 100 100 100 100 100 100 100 100 100 100 100 100 100 100 100
100 83 72 81 100 71 88 90 41 84 100 100 100 75 80 29 7 5 17 25 5 30 69 100 100 100 100 100 100 100 100 100 100 100 100 100 100 100 100 100 100 100 99
100 100 100 100 100 100 73 79 100 100 100 100 31 66 33 5 38 25 5 5 35 64 97 100 100 100 100 100 100 100 100 100 100 100 100 100 100 100 100 100 100 100 100
100 100 100 99 100 61 61 100 100 100 100 100 98 99 58 83 100 100 100 100 21 32 95 100 100 100 100 100 100 100 100 100 100 100 100 100 100 100 100 100 100 100 100
54 50 42 46 95 100 100 100 100 100 96 76 100 100 100 100 78 100 51 95 100 100 100 100 100 100 100 100 100 100 100 100 100 100 100 100 100 100 100 100 100 100 100
76 5 76 14 19 48 71 93 100 48 98 84 83 82 99 100 57 96 100 100 100 100 100 77 100 100 100 100 100 100 100 100 100 100 100 100 100 100 100 100 100 100 100
100 100 96 64 76 43 100 100 100 100 100 100 100 100 98 98 100 100 100 100 100 100 100 100 41 100 100 100 100 100 100 100 100 100 100 100 100 100 100 100 100 100 100
100 100 100 100 100 98 97 100 98 77 71 100 100 100 100 100 100 100 100 100 100 100 100 100 100 100 100 100 100 100 100 100 100 100 100 100 100 100 100 100 100 100 100
100 93 94 95 100 86 94 100 94 98 77 100 100 61 99 100 100 100 100 100 100 100 100 100 100 100 100 100 100 100 100 100 100 100 100 100 100 100 100 100 100 100 100
96 86 94 94 100 100 100 100 100 85 94 99 98 100 98 93 100 100 100 100 100 100 100 100 100 100 100 100 100 100 100 100 100 100 100 100 100 100 100 100 100 100 100
99 96 100 100 100 79 100 100 100 98 75 100 100 100 94 90 88 100 100 100 100 100 100 100 100 100 100 100 100 100 100 100 100 100 100 100 100 100 100 100 100 100 100
100 100 100 100 100 100 100 100 74 88 96 99 96 96 71 96 99 94 100 100 100 100 100 100 96 91 100 100 100 100 100 100 98 98 100 100 100 100 100 100 100 93 97
100 100 100 100 100 100 100 100 65 44 68 41 25 22 39 79 95 94 100 68 100 100 100 100 100 100 100 100 81 85 46 17 38 76 74 60 94 81 100 96 87 91 100
100 100 100 100 100 100 100 76 99 100 100 100 98 73 62 57 62 31 46 37 59 100 100 98 99 99 100 89 99 74 91 87 27 54 100 100 100 99 100 100 100 98 60
100 100 100 100 100 100 100 60 91 99 99 96 100 100 100 99 99 100 100 89 75 75 90 80 74 73 10 5 5 5 5 29 49 94 42 63 70 10 10 5 5 5 5
100 100 100 100 100 100 100 89 20 10 48 84 82 28 21 66 71 49 6 5 5 5 8 5 5 5 5 5 5 5 5 18 5 5 5 5 5 5 5 0 2 5 13
100 100 100 100 100 100 96 80 36 30 14 16 10 5 5 5 5 5 5 5 5 5 5 5 5 5 4 0 5 5 5 5 5 5 20 75 5 5 5 3 4 5 5
100 100 100 78 8 5 5 5 5 5 5 5 5 5 4 5 29 27 3 5 5 5 5 5 2 8 51 79 82 68 18 5 15 55 100 99 5 8 5 5 5 4 1
68 12 5 5 2 5 5 4 4 4 5 5 5 4 5 5 5 5 4 5 5 5 5 5 5 5 3 3 5 3 5 15 61 49 7 82 100 68 9 5 5 5 4

GFSMA_prec_cloud_081.txt.gz
Cloud_Cover
4 0 3 16 24 17 7 12 13 17 5 4 0 4 1 2 4 2 7 0 0 4 2 0 0 0 0 11 4 5 34 100 100 100 100 100 100 100 100 100 98 50 63
0 0 4 11 13 14 6 5 11 13 8 1 2 3 5 5 0 0 4 0 0 0 0 0 0 3 3 2 37 75 100 100 100 100 100 100 100 100 100 100 100 100 85
4 0 0 8 5 12 5 4 1 4 0 0 2 5 5 5 3 5 5 5 4 5 0 0 0 5 13 96 100 100 100 100 100 100 100 100 100 100 100 100 100 100 99
5 3 4 5 5 5 8 6 5 5 2 5 7 12 30 5 11 5 5 4 13 5 2 5 5 5 90 100 100 100 100 100 100 100 100 100 100 100 100 100 100 100 98
34 5 37 8 11 5 5 5 5 5 6 61 9 14 5 74 14 5 2 5 5 7 6 5 5 13 24 48 100 100 100 100 100 100 100 100 100 100 100 100 100 100 100
49 42 56 25 5 14 14 22 6 14 86 20 5 9 69 9 5 15 12 6 5 6 19 5 5 5 67 60 96 100 100 98 100 100 100 100 100 100 100 100 100 100 100
97 63 22 5 5 5 5 67 96 100 84 29 35 5 41 13 45 5 7 100 19 48 6 95 100 94 85 100 91 100 100 100 100 100 100 100 100 100 100 100 100 100 100
18 15 17 37 9 18 86 100 100 100 100 77 100 100 100 84 88 18 60 12 52 5 22 52 30 62 99 72 100 100 100 100 100 100 100 100 100 100 100 100 100 100 100
100 100 100 95 100 100 100 100 100 100 100 69 47 89 100 100 90 64 11 44 5 4 5 5 7 32 25 87 100 100 100 100 100 100 100 100 100 100 100 100 100 100 100
100 100 100 100 100 100 100 99 100 63 74 100 100 100 100 100 100 98 100 32 21 59 96 100 100 97 71 99 100 100 100 100 100 100 100 100 100 100 100 100 100 100 100
100 100 100 100 100 100 100 100 100 100 77 97 76 82 89 48 100 100 100 87 46 23 44 45 87 94 81 97 100 100 100 100 100 100 100 100 100 100 100 100 100 100 100
100 100 100 100 100 100 100 100 100 98 83 99 100 100 100 100 100 100 100 55 94 47 15 90 78 100 86 48 55 100 100 100 100 100 100 100 100 100 100 100 100 100 100
100 100 100 100 100 100 100 100 100 100 100 100 100 100 96 100 90 100 100 99 97 99 98 76 100 100 100 69 100 98 97 100 100 100 100 100 100 100 100 100 100 100 100
100 97 98 98 98 56 84 94 84 94 100 100 100 100 100 100 100 100 100 100 100 100 100 100 100 89 100 32 100 98 92 100 100 100 100 100 100 100 100 100 100 100 100
100 100 100 100 100 100 97 98 96 100 100 100 100 70 97 100 56 99 100 100 100 100 100 100 100 56 96 100 100 100 99 100 100 100 100 100 100 100 100 100 100 100 100
100 100 100 100 100 100 100 100 100 97 100 100 100 100 78 66 87 100 97 81 100 100 100 100 100 100 100 100 100 100 100 100 100 100 100 100 100 100 100 100 100 100 100
100 100 100 100 100 100 100 100 100 100 100 100 100 100 100 100 99 55 100 72 92 100 100 100 100 100 100 100 100 100 100 100 100 100 100 100 100 100 100 100 100 100 100
100 100 100 100 100 100 100 100 100 100 100 100 100 100 100 100 100 75 90 58 99 100 99 100 100 100 100 100 100 100 100 100 100 100 100 100 100 100 100 100 100 100 100
100 100 100 100 97 95 100 100 100 100 100 100 100 100 100 100 97 86 100 98 50 5 27 65 97 86 69 100 97 100 100 99 96 64 83 49 87 100 100 100 100 100 100
76 89 95 84 100 100 100 100 100 100 100 100 100 100 35 37 19 16 9 5 5 5 8 23 54 94 100 100 100 90 72 100 97 24 47 3 6 5 7 23 49 93 100
100 100 100 100 100 100 100 100 100 100 100 100 100 93 87 81 82 24 6 10 5 7 79 98 94 79 97 94 55 17 18 5 3 5 5 2 4 5 5 2 5 5 50
100 100 100 100 100 100 100 100 100 100 100 100 100 100 100 98 100 100 99 43 61 10 25 21 24 26 7 5 5 5 5 5 5 5 5 5 5 5 4 5 5 5 5
100 100 100 100 100 100 100 100 100 100 100 99 43 16 5 20 6 5 5 5 4 11 4 5 5 5 5 5 5 5 6 24 6 5 5 5 5 5 5 5 5 5 9
100 100 100 100 100 100 100 100 100 100 9 5 5 5 5 5 8 8 20 5 5 5 5 5 5 5 5 1 5 4 5 5 5 5 5 70 5 5 5 5 5 4 7
100 100 100 100 100 100 100 100 76 5 5 5 5 5 5 5 34 94 6 5 5 5 5 5 5 5 9 57 100 100 96 40 5 5 5 8 6 13 5 5 5 4 5
100 100 100 100 100 100 65 53 6 5 5 5 0 2 5 64 100 50 5 5 5 5 5 5 5 5 5 5 5 5 5 6 58 16 5 66 22 41 31 5 5 4 4

GFSMA_prec_cloud_084.txt.gz
Cloud_Cover
9 5 6 15 24 22 8 4 5 8 2 0 0 1 2 2 0 2 0 0 0 5 6 5 4 3 3 24 3 0 2 17 75 100 100 100 100 100 100 100 100 100 100
2 9 3 5 21 26 15 3 5 9 6 0 1 5 5 3 4 5 4 3 5 6 15 5 5 5 5 17 28 1 4 35 78 89 100 100 100 100 100 100 100 100 100
37 13 6 6 8 15 3 7 4 3 8 0 3 5 5 5 5 5 5 5 5 5 5 5 5 5 2 8 27 46 12 11 14 5 5 34 100 100 100 100 100 100 100
59 67 27 5 5 7 13 14 12 11 12 5 5 5 5 5 5 5 5 9 5 6 5 3 4 5 5 5 15 99 84 2 18 93 100 100 100 100 100 100 100 100 100
38 14 5 6 67 62 31 8 7 5 5 5 5 5 5 18 5 5 5 5 5 5 15 5 5 5 5 5 10 48 100 93 8 45 100 100 100 100 100 100 100 100 100
100 100 97 100 100 96 73 19 5 5 5 5 42 7 7 13 23 5 5 5 5 5 22 5 14 5 5 5 5 67 83 81 96 100 100 100 100 100 100 100 100 100 100
100 100 100 100 100 87 52 49 14 13 5 5 5 5 66 100 28 6 7 5 5 56 45 38 9 5 5 5 5 58 88 100 98 100 100 100 97 100 100 100 100 100 100
100 100 100 94 20 89 100 11 5 17 18 9 93 100 100 100 100 49 80 13 100 92 64 20 5 18 63 82 100 100 100 100 100 100 100 100 100 100 100 100 100 100 100
100 100 86 98 88 72 25 20 21 93 100 100 100 96 100 100 100 100 98 99 83 39 5 5 29 16 72 78 100 100 100 100 100 100 100 100 100 100 100 100 100 100 100
100 100 100 97 100 86 93 98 100 100 100 100 100 100 73 92 100 97 100 100 82 12 95 100 55 86 97 99 100 90 90 100 100 100 100 100 100 100 100 100 100 100 100
100 100 100 100 100 100 100 100 100 100 100 100 100 98 96 92 100 100 100 100 93 100 29 6 92 51 99 43 80 49 100 100 100 98 95 100 100 100 100 100 100 100 100
100 100 100 100 100 100 100 100 100 100 100 100 100 100 100 100 100 100 100 100 98 63 60 75 5 37 82 76 89 100 98 86 98 100 100 100 100 100 100 100 100 100 100
100 100 100 100 100 100 100 94 100 100 100 100 100 100 100 100 100 100 100 100 100 91 97 5 85 100 100 100 14 92 56 100 100 100 100 100 100 100 100 100 100 100 100
100 100 100 100 100 100 100 100 100 100 100 100 100 100 100 100 100 100 100 100 100 100 86 8 4 100 98 59 100 100 62 100 100 100 100 100 100 100 100 100 100 100 100
100 100 100 100 100 100 100 100 100 100 100 100 100 100 100 100 100 98 99 96 98 100 100 33 49 77 97 100 100 100 99 100 100 100 100 100 100 100 100 100 100 100 100
100 100 100 100 100 100 100 100 100 100 100 100 100 100 100 100 100 97 100 58 100 100 100 78 96 100 100 100 100 100 100 100 100 100 100 100 100 100 100 100 100 100 100
100 100 100 100 100 100 100 100 100 100 100 100 100 100 100 100 100 100 100 100 62 80 100 100 100 100 100 100 100 92 100 95 89 100 100 100 100 100 100 100 100 100 100
100 100 98 100 100 100 100 100 100 100 100 100 100 100 100 100 100 100 100 97 55 52 80 99 100 100 100 100 100 100 99 99 100 100 100 100 100 100 85 33 34 100 100
100 100 100 100 100 100 100 100 100 100 100 100 100 100 100 100 100 100 100 100 97 22 5 20 92 100 100 99 77 94 100 100 100 92 45 9 5 2 5 5 22 78 96
78 100 100 100 85 100 100 100 100 100 100 100 100 100 100 100 100 100 95 36 8 5 5 15 28 79 98 98 79 82 98 99 50 16 2 0 0 2 1 2 5 5 5
100 94 100 100 100 100 100 100 100 100 100 100 100 100 100 100 100 100 46 16 4 7 47 74 56 44 62 40 87 60 11 5 5 5 5 5 4 4 4 2 1 0 2
100 100 100 100 100 100 100 100 100 100 100 100 100 100 100 100 100 100 100 64 6 5 23 22 72 7 5 5 5 5 5 5 5 5 5 5 5 5 4 5 2 5 5
100 100 100 100 100 100 100 100 100 100 100 100 100 100 100 100 5 5 5 5 13 36 34 21 5 5 5 5 5 5 6 35 14 5 5 5 5 5 4 0 0 5 5
100 100 100 100 100 100 100 100 100 100 100 100 100 100 80 12 18 5 5 5 70 100 47 5 5 5 5 5 5 5 5 5 5 5 5 74 5 5 5 5 5 5 25
100 100 100 100 100 100 100 100 100 100 100 100 96 28 20 11 6 5 4 5 80 72 7 10 5 8 19 12 64 50 74 53 10 5 5 8 6 12 5 5 5 4 72
100 100 100 100 100 100 100 100 100 100 100 80 80 39 5 5 5 5 33 96 78 5 5 5 5 4 5 9 7 5 5 5 61 19 8 78 45 12 28 5 5 2 5

GFSMA_prec_cloud_087.txt.gz
Cloud_Cover
1 2 0 4 10 15 0 0 0 0 0 0 0 0 0 0 0 0 0 0 5 5 8 6 5 5 5 8 0 0 0 0 0 16 4 18 19 15 21 100 100 100 100
38 5 5 5 5 6 1 5 0 0 0 0 0 0 1 4 1 1 0 4 4 1 5 6 19 6 5 9 33 5 3 22 0 7 2 26 5 8 72 100 100 100 100
22 14 5 5 5 5 5 5 5 0 0 4 5 5 5 5 5 2 5 5 5 5 5 5 6 18 10 2 38 99 44 6 15 11 4 5 9 100 100 100 100 100 100
54 47 6 6 5 7 5 5 1 6 6 7 10 6 6 5 5 5 5 5 17 46 5 5 5 5 10 15 31 100 100 66 5 5 5 9 9 75 100 99 100 100 100
51 30 38 64 36 39 74 40 51 100 99 100 10 34 6 5 5 5 5 52 16 5 28 5 5 10 5 5 6 7 44 37 6 5 8 5 74 78 99 100 100 100 100
56 10 41 86 99 100 100 100 100 100 100 90 69 20 51 12 5 16 6 5 5 5 5 5 4 7 32 5 5 4 8 90 58 21 54 71 58 100 100 100 100 100 100
100 60 98 100 100 100 100 100 100 100 100 47 97 97 43 15 90 5 5 8 5 5 5 5 5 37 26 52 65 98 98 100 100 100 98 5 99 100 53 100 100 100 100
100 100 100 100 100 100 100 100 100 100 99 100 97 87 91 76 6 7 11 5 6 6 5 8 52 99 75 47 87 100 97 100 100 100 100 100 46 100 94 100 100 100 100
100 100 100 100 100 100 100 100 100 100 100 100 100 94 99 95 100 100 100 100 88 100 61 71 61 84 100 89 100 99 100 100 99 100 100 100 72 49 28 84 100 62 100
100 100 100 100 100 100 100 92 68 99 100 93 100 35 94 100 100 100 100 100 100 100 100 100 100 46 32 76 44 0 93 100 100 100 100 100 100 100 100 100 100 97 100
100 100 100 100 100 100 100 100 100 100 64 99 100 99 98 100 100 99 100 100 100 100 100 100 100 100 78 42 41 95 58 100 100 90 100 100 100 100 100 100 100 100 100
100 100 100 100 100 100 100 100 100 96 100 100 100 100 100 100 100 100 100 100 100 100 100 100 100 100 20 100 100 86 99 53 100 99 90 100 100 100 100 100 100 100 100
100 100 100 100 96 100 100 97 100 100 100 100 100 100 100 100 100 100 100 100 100 100 100 100 100 74 18 16 53 100 78 97 56 100 100 100 100 100 100 100 100 100 100
99 100 100 100 100 100 88 100 100 100 100 100 100 100 100 100 100 100 100 100 100 100 100 100 100 62 55 99 100 50 62 67 100 100 100 100 100 100 100 95 100 100 100
100 100 100 100 100 100 100 100 100 100 100 100 100 100 100 100 100 100 100 100 100 100 100 100 100 79 99 100 100 100 96 98 100 100 100 100 92 100 100 100 100 100 100
100 100 100 100 100 100 100 100 100 100 100 100 100 100 100 100 100 100 100 100 100 100 100 100 98 93 84 100 100 100 100 100 100 100 100 100 100 100 100 100 96 100 97
100 100 100 100 100 100 100 100 100 100 100 100 100 100 99 100 100 100 100 100 100 100 100 100 100 96 73 92 89 97 100 100 100 100 100 100 100 100 100 100 100 57 25
100 100 100 100 100 100 100 100 100 100 100 96 100 100 100 100 100 100 100 100 100 100 100 100 100 100 100 99 100 100 100 100 100 86 100 100 100 100 100 79 6 5 4
100 100 100 100 100 100 100 100 100 98 100 99 100 100 100 100 100 100 100 100 100 100 100 63 93 100 100 99 95 80 96 97 100 56 88 67 32 5 0 4 4 5 5
90 94 84 98 100 100 100 100 100 100 100 100 100 100 100 100 100 100 100 100 100 99 60 62 59 69 81 65 95 80 43 36 71 25 5 4 0 1 0 0 0 5 4
86 100 95 100 100 100 100 100 100 100 100 100 98 100 100 100 100 100 100 100 100 92 16 8 89 51 75 20 6 5 5 2 0 0 0 0 0 0 0 0 0 0 2
100 85 85 100 100 100 100 100 100 100 100 100 100 100 100 100 100 100 100 100 100 82 5 5 5 5 5 5 5 5 1 0 0 5 5 0 0 0 0 0 1 4 4
100 100 100 100 100 100 100 100 100 100 100 100 100 100 100 100 100 100 100 100 12 5 4 1 4 5 5 5 5 5 4 3 3 5 5 0 0 0 0 0 1 5 5
100 100 100 100 100 100 100 100 100 100 100 100 100 100 100 100 100 100 100 53 5 5 2 5 5 5 5 5 3 5 5 5 5 5 5 5 5 2 1 4 5 8 7
100 100 100 100 100 100 100 100 100 100 100 100 100 100 100 100 100 100 35 5 5 2 18 26 6 28 12 25 5 5 5 19 5 5 5 5 5 5 5 3 0 4 94
100 100 100 100 100 100 100 100 100 100 100 100 100 100 100 100 98 28 5 5 5 5 5 5 5 5 5 24 5 5 5 5 5 15 6 47 59 41 5 5 2 2 0

GFSMA_prec_cloud_090.txt.gz
Cloud_Cover
5 5 2 4 4 8 1 2 0 2 4 0 0 0 0 5 5 4 5 3 5 2 3 22 10 7 5 5 5 5 0 0 0 17 0 6 5 6 4 99 100 100 68
5 5 6 5 5 4 3 4 5 4 5 5 3 5 5 5 5 5 5 8 5 0 4 5 20 10 5 6 59 5 0 0 5 3 0 0 0 0 4 5 9 90 100
81 64 73 83 38 5 54 49 64 38 8 6 54 7 5 98 35 23 30 5 5 8 5 5 5 8 21 12 36 96 45 5 5 5 4 5 5 5 5 5 76 98 95
77 99 100 92 52 16 69 81 81 86 81 47 89 100 100 89 99 48 5 5 5 5 5 5 5 5 24 78 12 33 31 5 2 0 4 5 5 6 16 25 81 75 100
60 73 78 98 100 100 96 80 44 28 96 100 100 100 100 98 60 93 5 5 5 5 5 5 5 5 5 5 25 34 70 69 5 4 5 8 47 38 99 76 30 57 84
99 93 41 87 96 87 65 92 81 100 100 100 100 100 100 80 100 15 93 8 5 5 5 5 6 5 5 29 68 24 84 76 81 96 93 39 8 77 28 5 5 66 5
95 39 71 97 100 66 72 100 100 100 100 100 100 100 100 100 63 98 5 5 5 5 5 5 5 5 39 6 8 56 80 52 37 100 99 99 18 18 13 94 51 30 73
100 100 100 100 100 100 100 100 100 100 100 100 100 100 100 100 100 33 18 5 5 6 26 6 8 40 72 23 100 89 100 16 5 87 100 28 100 52 49 55 100 100 100
100 100 100 100 100 100 100 100 100 100 100 100 100 100 100 100 99 100 100 84 16 72 48 89 86 100 75 98 46 100 100 18 41 100 99 99 72 100 56 62 100 94 95
100 100 100 100 100 100 100 100 100 100 100 100 100 100 100 100 100 100 100 100 100 100 100 100 100 100 100 99 28 100 42 9 3 88 40 100 100 100 90 97 99 100 100
100 100 100 100 100 100 100 100 100 100 100 100 100 100 100 100 100 100 100 100 76 100 100 100 100 100 97 93 81 100 55 100 100 70 96 99 99 88 100 100 100 100 100
100 100 100 100 100 100 100 100 100 100 100 100 100 100 100 100 100 100 100 100 100 100 100 100 100 98 58 34 100 67 43 56 84 97 100 82 100 100 100 100 100 100 100
100 100 100 100 100 100 100 100 100 100 100 100 100 100 100 100 100 100 71 91 100 100 100 100 100 100 100 100 98 76 100 100 100 99 100 100 100 100 100 100 100 100 100
100 100 100 100 100 100 100 100 100 100 100 100 100 100 100 100 100 100 99 100 100 100 100 100 100 100 100 100 98 100 100 96 98 100 100 100 100 100 100 100 100 100 100
100 100 100 100 100 100 100 100 100 100 100 100 100 100 100 100 100 100 100 100 100 100 100 100 100 100 100 100 100 100 99 100 100 100 100 100 100 100 100 100 100 100 100
100 100 100 100 100 100 100 100 100 100 100 100 100 100 100 100 100 100 100 100 100 99 100 100 100 100 100 100 100 100 100 100 100 100 100 100 100 100 100 100 100 100 100
100 100 100 100 100 100 100 100 100 100 100 100 100 100 100 100 100 100 100 100 100 100 100 100 100 100 100 100 96 80 74 84 84 89 100 98 28 55 100 100 100 100 55
100 100 100 100 100 100 100 100 100 100 100 100 100 100 100 100 100 100 100 100 100 100 100 100 100 100 100 100 89 68 100 100 88 73 100 65 98 20 65 89 96 6 4
100 100 100 100 100 100 100 100 100 100 100 100 100 100 100 100 100 100 87 98 100 100 100 100 100 100 100 81 63 26 5 5 5 5 20 6 6 17 5 2 0 5 5
87 100 99 98 87 100 100 100 100 100 100 100 99 98 100 76 100 99 100 100 100 100 100 100 100 100 100 61 17 5 5 5 5 5 4 2 0 0 0 0 0 2 4
5 5 15 16 44 74 98 91 64 70 100 100 88 100 100 94 99 100 91 100 100 100 100 100 100 100 100 44 5 5 5 2 0 2 0 0 0 0 0 0 0 0 0
91 100 86 72 94 95 100 100 100 100 100 100 100 100 100 100 100 100 100 100 100 100 100 100 100 87 46 3 5 5 1 0 5 0 0 0 0 0 0 0 0 4 5
100 100 100 100 100 100 100 100 100 100 100 100 100 100 100 100 100 100 100 100 100 100 100 100 100 88 4 5 5 5 5 5 5 4 2 0 0 0 0 0 0 5 5
100 100 100 100 100 100 100 100 100 100 100 100 100 100 100 100 100 100 100 100 100 100 100 100 7 3 5 5 5 6 5 5 5 5 5 5 4 0 0 0 0 6 10
100 100 100 100 100 100 100 100 100 100 100 100 100 100 100 100 100 100 100 100 100 100 100 89 5 5 5 5 5 12 34 10 5 5 5 5 5 5 5 5 2 3 33
100 100 100 100 100 100 100 100 100 100 100 100 100 100 100 100 100 100 100 100 100 100 28 5 5 5 5 16 8 10 7 35 11 37 44 54 66 41 16 5 5 5 5

GFSMA_prec_cloud_093.txt.gz
Cloud_Cover
5 5 3 18 26 28 33 22 7 23 16 4 0 1 3 5 5 5 20 100 100 46 15 70 5 1 5 4 4 1 0 0 3 10 0 0 0 3 0 1 0 3 4
5 7 24 62 40 10 9 11 5 5 5 5 5 5 5 5 5 20 79 100 92 6 99 100 19 23 2 1 54 3 0 0 5 5 4 0 5 8 5 5 5 5 5
61 60 64 89 52 17 68 71 70 76 43 18 27 70 97 66 5 88 100 84 100 99 85 5 1 10 27 29 32 8 0 5 5 5 5 5 13 5 5 5 7 5 5
65 58 71 43 10 49 87 100 92 86 88 100 100 34 5 25 100 100 100 64 100 98 42 5 5 2 5 6 15 34 75 5 5 5 5 5 5 5 5 13 62 5 5
64 39 81 88 73 37 66 74 100 100 100 83 32 27 82 100 100 99 93 100 57 18 36 5 0 3 4 5 5 5 36 100 89 47 5 5 9 4 12 11 5 5 5
78 71 56 51 31 82 96 47 38 80 100 100 68 95 100 100 95 100 96 91 56 11 5 5 5 4 5 5 5 5 5 37 92 94 100 77 5 0 4 5 5 5 5
100 100 100 100 98 42 5 6 5 5 41 94 100 100 100 100 100 100 64 28 48 5 5 5 5 5 6 5 5 5 5 5 5 98 90 44 100 81 5 9 28 6 5
100 100 100 100 100 100 100 100 100 97 100 100 100 100 100 100 100 88 36 93 6 26 5 5 5 44 77 32 11 97 31 91 58 15 86 100 100 100 100 33 94 47 45
100 100 100 100 100 100 100 100 100 100 100 100 100 100 100 100 100 100 100 100 86 16 5 5 5 6 63 10 53 86 41 38 99 89 56 100 99 96 100 100 37 5 20
100 100 100 100 100 100 100 100 100 100 100 100 100 100 100 100 100 100 100 100 100 74 35 56 5 57 15 24 74 12 100 100 100 56 11 70 100 99 100 100 100 100 22
100 100 100 100 100 100 100 100 100 100 100 100 100 100 100 100 100 100 100 84 100 100 100 31 33 17 7 98 82 64 46 68 100 48 75 100 70 100 100 100 100 93 99
100 100 100 100 100 100 100 100 100 100 100 100 100 100 100 100 100 100 100 100 100 100 100 100 7 19 94 14 92 100 71 95 97 95 86 96 80 39 100 100 100 100 100
100 100 100 100 100 100 100 100 100 100 100 100 100 100 100 100 100 100 100 100 100 100 100 98 76 65 65 48 97 100 100 98 51 71 100 100 84 100 100 100 100 100 100
100 100 100 100 100 100 100 100 100 100 100 100 100 100 100 100 100 100 100 100 100 100 100 100 69 99 99 100 100 100 100 100 100 100 100 100 100 98 100 100 100 100 42
100 100 100 100 100 100 100 100 100 100 100 100 100 100 100 100 100 100 100 100 100 100 100 100 82 100 100 100 100 100 100 100 100 100 100 100 100 100 100 99 100 100 92
100 100 100 100 100 100 100 100 100 100 100 100 100 100 100 100 100 100 100 100 100 100 100 100 100 100 94 100 100 100 100 100 100 100 62 44 92 100 100 43 100 100 100
100 100 98 95 100 100 100 100 100 100 100 100 100 100 100 100 100 100 100 100 100 100 100 100 100 100 100 100 100 100 100 100 100 93 67 7 85 10 7 5 16 98 100
100 100 100 99 100 100 100 100 100 100 100 100 100 100 100 100 100 100 100 100 100 100 100 100 85 98 100 100 100 100 97 98 100 9 5 5 24 40 42 33 8 34 7
69 63 98 100 100 100 100 100 100 100 100 100 100 100 100 100 100 100 100 100 100 54 92 100 100 100 100 100 95 100 100 100 14 5 5 5 5 5 5 4 1 0 2
87 89 100 100 100 100 100 100 100 100 100 100 100 100 100 100 100 86 99 100 100 90 95 100 100 100 100 99 100 92 100 98 5 5 2 3 0 0 0 0 0 0 0
89 92 23 5 5 13 26 33 83 100 100 100 96 100 66 89 19 50 38 86 100 79 100 100 100 100 100 100 100 97 100 17 5 4 1 0 5 0 0 0 0 0 0
100 100 80 38 29 50 99 100 100 67 81 72 70 88 35 60 57 76 97 100 100 99 100 100 100 100 100 100 100 100 33 5 5 0 0 0 5 5 0 0 0 0 3
100 100 100 99 100 100 100 100 100 100 100 100 100 100 100 100 100 97 100 100 100 100 100 100 100 100 100 100 100 84 4 5 2 2 0 5 5 5 5 1 0 0 3
100 93 100 100 100 100 100 100 100 100 100 100 100 100 99 84 100 100 100 100 100 100 100 100 100 100 100 100 22 5 5 2 3 4 5 5 5 5 5 5 0 1 7
99 100 100 100 100 100 100 100 100 100 100 76 100 76 100 99 100 100 100 100 100 100 100 100 100 100 100 19 5 5 10 5 5 5 5 5 5 5 5 5 4 0 5
100 100 100 100 100 100 100 100 94 99 100 100 100 66 100 100 100 100 100 100 100 100 100 100 100 100 76 5 5 5 5 5 12 13 6 8 57 16 8 5 4 5 5

GFSMA_prec_cloud_096.txt.gz
Cloud_Cover
0 0 0 0 0 2 3 2 11 35 5 5 5 5 5 5 5 5 5 88 48 54 100 100 100 69 48 2 1 1 0 0 0 1 4 5 0 0 4 4 4 4 0
4 0 0 1 5 34 5 14 55 46 14 31 13 6 5 5 5 28 100 7 82 100 100 100 100 16 5 5 0 0 0 0 0 5 5 5 0 1 0 5 5 5 3
5 5 5 5 5 5 5 52 63 62 33 62 87 7 5 5 76 16 5 38 44 100 100 100 8 10 35 22 43 1 0 1 1 0 5 0 0 5 2 5 5 5 1
15 5 5 5 16 53 52 39 52 52 66 93 42 8 12 18 5 6 35 100 100 100 100 100 5 10 1 5 37 56 92 18 1 1 4 0 1 7 7 5 4 5 5
74 29 88 85 73 36 22 31 25 5 5 11 6 10 5 5 6 28 91 100 100 100 100 98 79 10 5 5 4 5 30 100 100 100 81 0 5 70 34 5 2 5 5
100 100 100 100 100 100 100 99 53 5 17 5 12 5 4 5 5 9 36 95 85 99 28 57 17 12 10 5 5 5 3 4 99 86 42 8 8 78 81 5 5 5 1
100 100 100 100 100 100 100 100 100 100 100 100 99 100 100 100 100 98 100 81 72 92 6 49 37 98 51 75 61 31 5 5 5 15 92 75 42 48 89 74 10 0 5
100 100 100 100 100 100 100 100 100 100 100 100 100 100 100 87 82 100 100 17 60 14 6 11 94 55 73 49 27 26 100 100 38 5 8 89 95 75 100 75 37 54 72
100 100 100 100 100 100 100 100 100 100 100 100 100 93 94 98 100 100 100 100 92 91 92 81 52 8 74 50 100 97 100 75 6 48 37 5 60 59 90 100 100 100 100
100 100 100 100 100 100 100 100 100 100 99 90 100 95 96 100 100 100 100 100 98 100 96 40 12 75 70 81 94 80 21 9 5 8 97 82 19 69 100 100 100 100 99
100 100 100 100 100 100 100 100 100 100 100 100 100 100 100 100 100 100 100 100 100 100 79 49 100 95 99 100 52 83 86 5 7 10 99 100 10 5 74 100 100 100 100
100 100 100 100 100 100 100 100 100 100 100 100 100 100 100 100 100 98 100 98 100 84 100 100 99 97 100 71 100 100 75 14 83 100 100 100 86 10 22 100 100 100 100
100 100 100 100 100 100 100 100 100 100 100 100 99 100 100 100 100 100 100 98 96 100 100 100 100 92 100 100 93 94 31 66 100 97 100 93 66 99 98 100 100 100 89
100 100 100 100 100 100 100 98 100 100 100 100 100 100 100 100 100 100 100 100 100 100 100 100 100 100 100 100 100 100 91 100 100 100 100 100 100 100 100 100 100 100 100
100 100 100 100 100 100 100 100 100 100 100 100 100 100 100 100 100 100 100 100 100 100 100 100 100 100 100 100 100 100 100 100 100 100 100 97 100 100 100 100 100 95 6
100 98 100 100 100 100 100 82 96 100 100 100 100 100 100 100 100 100 100 100 100 100 100 100 100 100 100 99 100 100 100 100 100 100 100 86 20 87 100 100 100 97 5
100 100 100 100 100 100 100 100 100 100 100 100 100 100 100 100 100 100 100 100 100 100 100 100 100 100 100 100 100 100 100 100 100 100 100 81 36 84 2 2 3 5 5
100 100 100 100 100 100 100 100 100 100 100 100 100 100 100 100 100 100 100 100 100 100 100 100 100 100 100 100 100 100 100 100 100 100 74 38 100 20 5 5 3 5 5
98 100 100 98 100 100 100 100 100 100 100 100 100 100 100 100 100 100 100 100 100 100 100 100 96 77 100 100 100 100 98 100 100 98 51 100 5 5 5 4 4 0 5
79 100 30 99 72 100 99 84 87 100 100 100 100 100 100 100 100 100 100 100 71 38 34 94 95 100 100 100 100 100 100 100 100 100 100 95 3 0 0 0 0 2 5
96 55 89 99 94 100 91 89 100 100 100 97 100 100 100 100 84 72 7 5 31 45 99 100 81 100 100 100 100 100 100 100 100 100 100 0 0 0 0 0 1 5 5
100 85 96 100 100 100 98 100 78 93 100 82 61 15 36 100 97 52 91 95 68 92 100 98 100 100 100 100 100 100 100 100 100 94 5 0 0 0 0 5 5 5 5
30 0 2 80 100 100 100 100 100 100 100 100 100 100 100 99 57 99 100 98 97 100 95 95 100 100 100 100 100 100 100 100 100 66 5 5 4 5 5 5 5 5 5
68 98 100 19 74 100 100 100 100 100 100 100 100 100 100 98 100 100 100 100 92 100 99 97 100 100 99 100 100 100 100 100 93 5 5 5 5 5 5 5 5 5 9
100 98 85 52 74 100 100 100 100 100 100 100 100 99 100 100 100 100 100 100 86 100 100 100 100 100 100 100 100 100 100 100 5 5 5 5 5 5 5 5 5 5 56
100 100 87 100 100 100 100 100 100 100 100 100 100 100 100 100 100 100 100 100 100 100 100 100 100 100 100 100 94 100 95 18 9 7 5 5 5 10 32 5 5 22 88

GFSMA_prec_cloud_099.txt.gz
Cloud_Cover
5 4 5 7 0 0 1 0 0 5 5 5 6 5 5 5 5 5 5 5 5 78 47 5 5 5 5 8 5 2 0 0 0 5 6 0 2 1 0 0 0 34 24
5 5 5 5 4 2 0 0 2 5 5 5 6 5 7 5 37 11 11 53 80 99 51 81 26 10 29 5 5 3 4 0 0 0 0 0 2 3 0 0 5 32 15
100 42 13 19 30 6 8 5 5 5 5 5 5 5 5 10 99 33 5 10 10 21 91 5 6 68 45 44 93 5 5 0 0 0 0 0 3 3 0 0 4 5 7
100 100 96 6 36 11 40 82 10 35 5 7 10 5 5 0 0 0 3 3 4 5 5 41 100 18 5 5 50 95 99 19 16 7 4 4 3 5 5 2 4 5 35
88 100 100 82 95 96 99 86 99 32 5 14 8 6 56 50 38 36 9 80 99 57 80 100 98 5 5 40 9 8 8 92 100 100 99 4 0 5 3 0 5 5 5
23 63 100 100 100 100 100 100 100 100 68 80 62 100 100 57 100 90 100 100 96 35 99 17 5 32 75 94 100 89 8 5 84 88 45 93 19 3 79 71 54 44 5
93 44 94 100 100 100 100 100 100 100 100 100 100 100 100 100 100 100 99 12 22 100 92 6 5 6 38 62 18 49 5 70 63 8 80 100 99 29 89 100 100 11 5
89 98 100 100 100 100 100 100 100 100 100 100 100 98 98 87 92 71 85 8 76 80 100 9 6 13 10 7 5 26 99 47 92 62 14 11 63 100 45 100 39 91 100
100 100 100 100 100 100 100 100 100 100 100 100 100 100 93 93 93 40 24 76 97 100 97 8 5 92 83 5 23 82 96 93 8 50 46 35 3 44 100 100 95 100 100
100 100 100 100 100 100 100 100 100 100 100 100 100 100 100 91 79 99 100 100 100 100 86 6 19 10 17 39 100 28 20 92 49 71 4 6 9 13 53 93 77 100 100
100 100 100 100 100 100 100 100 100 100 100 100 100 100 100 100 100 100 100 100 99 100 66 26 93 96 100 72 100 100 100 100 39 5 5 5 12 5 5 18 100 100 100
100 100 100 100 100 100 100 100 100 100 100 100 100 100 100 100 100 100 100 100 100 100 100 100 100 100 100 100 100 100 92 81 87 5 7 25 14 44 8 60 100 100 100
100 100 100 100 100 100 100 100 100 100 100 100 100 100 100 100 100 100 100 100 100 100 100 100 100 100 100 100 100 100 100 98 94 40 97 99 92 100 98 86 100 100 100
99 100 100 100 100 100 100 100 100 100 100 100 100 100 100 100 100 100 100 100 100 100 100 100 100 100 100 100 100 100 100 100 100 100 38 100 100 100 100 100 100 99 100
100 100 100 100 100 95 53 99 100 100 100 100 100 100 100 100 100 100 100 100 100 100 100 100 100 100 100 100 100 100 100 100 100 100 100 100 100 100 100 100 100 100 100
100 100 99 99 100 100 86 96 100 100 100 100 100 100 100 100 100 100 100 100 100 100 100 100 100 100 100 100 100 100 100 100 100 100 100 100 100 100 100 100 100 100 100
100 100 100 91 100 89 100 100 100 100 100 100 100 100 100 100 100 100 100 100 100 100 100 100 100 100 100 100 100 100 100 100 100 100 100 100 100 100 50 26 96 24 27
100 100 100 100 100 90 39 93 97 93 100 100 100 100 100 100 100 100 100 100 100 100 100 100 100 100 100 100 100 100 100 100 100 100 100 100 100 100 39 100 42 5 4
97 97 98 100 100 98 100 100 77 98 100 100 100 100 100 100 100 100 100 100 100 100 100 100 100 100 100 100 100 100 100 98 100 100 100 100 100 100 100 92 5 3 0
99 71 89 100 50 93 73 73 40 56 100 100 100 100 100 100 100 100 100 100 100 100 100 100 100 100 100 100 100 100 46 100 100 100 100 86 100 100 100 5 2 0 0
20 58 86 100 27 5 82 49 52 100 89 99 100 100 100 100 100 100 100 100 100 100 98 99 100 100 100 100 73 92 36 100 100 100 100 100 100 100 100 4 0 4 0
5 5 68 100 100 100 38 96 100 100 100 100 100 100 100 100 100 100 75 100 100 100 100 100 100 99 87 100 76 100 97 100 100 100 100 100 100 99 5 5 4 5 5
0 0 11 0 24 96 94 98 100 100 100 99 100 100 100 100 100 100 61 34 100 100 100 100 100 100 78 92 100 100 100 100 100 100 100 100 100 65 5 5 5 5 5
0 3 100 52 0 0 95 100 100 100 100 100 100 100 100 96 82 85 79 100 93 100 100 100 100 95 100 100 100 100 100 100 100 100 100 100 91 5 5 5 5 10 5
93 100 100 45 5 28 87 100 100 100 100 100 100 100 100 100 100 100 100 100 100 94 100 100 99 100 100 100 100 100 100 100 100 100 100 100 45 30 5 5 12 8 5
100 100 95 35 50 69 100 100 100 100 100 100 100 100 100 100 100 100 100 100 100 98 100 100 100 100 100 100 100 100 100 100 100 100 100 90 98 85 90 45 62 7 5

GFSMA_prec_cloud_102.txt.gz
Cloud_Cover
90 43 28 27 14 9 4 1 0 0 0 0 0 0 2 5 5 5 5 4 5 5 5 4 0 0 0 4 5 5 5 3 1 2 1 0 5 4 0 0 0 0 0
98 54 96 37 13 14 5 5 5 5 5 5 1 0 4 5 5 5 2 0 4 1 0 10 31 5 5 5 5 5 2 2 5 5 2 1 5 0 0 0 1 0 0
81 94 100 100 100 61 28 54 16 5 5 5 5 5 5 5 3 0 5 5 84 95 84 5 89 98 70 67 81 27 5 0 2 0 0 0 5 0 3 5 1 0 5
95 61 32 44 95 100 93 99 62 70 30 20 5 5 5 4 5 4 5 100 100 99 75 54 18 77 32 7 7 42 80 90 64 17 5 4 5 3 5 3 5 4 5
99 9 53 26 12 65 100 100 99 100 100 100 100 100 91 5 5 4 90 100 85 31 91 98 32 59 5 5 7 16 4 67 100 100 98 20 5 18 5 2 7 5 77
100 89 90 97 100 100 100 100 100 100 100 100 100 100 95 99 91 51 100 56 94 6 48 97 74 5 8 6 5 5 4 4 57 93 67 100 70 5 72 78 91 98 5
100 100 85 100 100 100 100 100 100 100 100 100 100 100 100 62 14 5 9 5 5 43 100 18 79 36 34 5 17 5 4 12 10 57 64 99 100 100 42 9 100 96 5
100 100 96 100 100 100 100 100 100 100 100 100 97 96 100 95 98 87 71 98 100 83 100 100 100 8 20 28 12 21 100 31 82 99 78 28 27 88 72 96 100 32 99
100 100 100 100 100 100 100 100 100 100 100 100 100 100 98 76 60 96 84 61 47 100 71 100 97 71 100 59 79 100 98 100 11 28 83 70 8 9 35 100 100 62 100
100 100 100 100 100 100 100 100 100 100 100 100 100 100 100 100 100 100 98 95 91 71 100 100 92 83 95 15 100 100 100 100 100 100 100 23 5 11 6 36 96 94 99
100 100 100 100 100 100 100 100 100 100 100 100 100 100 100 100 100 100 100 100 64 100 100 100 100 100 100 100 100 100 100 100 100 100 100 85 5 3 6 5 50 99 94
100 100 100 100 100 100 100 100 100 100 100 100 100 100 100 100 100 100 100 100 100 100 100 100 99 100 100 100 100 100 100 100 100 100 100 96 23 8 7 75 36 94 100
100 99 100 100 100 100 100 100 100 100 100 100 100 100 100 100 100 100 100 100 100 100 100 100 100 100 100 100 100 100 100 100 100 100 100 100 85 68 100 100 94 100 100
50 85 100 100 100 100 100 100 100 100 100 100 100 100 100 100 100 100 100 100 100 100 100 100 100 100 100 100 100 100 100 100 100 100 100 100 100 99 95 100 88 100 100
100 100 96 100 100 100 96 100 100 100 100 100 100 100 100 100 100 100 100 100 100 100 100 100 100 100 100 100 100 100 100 100 100 100 100 100 82 98 100 100 100 100 100
97 100 98 71 94 100 100 100 100 97 94 85 91 100 100 100 100 100 100 100 100 100 100 100 100 100 100 100 100 100 100 100 100 100 100 100 100 66 100 100 100 100 100
65 80 20 88 100 100 100 100 100 97 100 100 96 99 99 100 100 100 100 100 100 100 100 100 100 100 100 100 100 100 100 100 100 100 100 100 100 92 100 100 100 55 98
5 5 40 26 17 86 89 100 100 100 100 100 100 100 100 100 100 100 100 100 100 100 100 100 100 100 100 100 100 100 100 100 100 100 100 100 100 100 100 100 69 97 100
34 61 5 25 62 75 89 82 86 100 100 100 100 100 100 100 100 100 100 100 100 100 100 100 100 100 100 100 100 100 100 100 100 100 100 100 100 100 100 96 90 100 100
5 5 4 2 51 57 62 62 46 46 100 100 100 100 100 100 100 100 100 100 100 100 100 100 100 100 100 100 100 100 100 100 98 99 74 96 100 100 100 97 85 100 100
3 0 0 0 3 0 0 14 63 99 99 58 100 100 100 100 100 100 100 100 100 100 100 100 100 100 100 100 100 100 100 100 100 100 87 100 100 100 99 100 99 100 95
0 5 5 2 2 0 0 0 2 0 0 100 100 58 72 100 100 100 100 100 100 100 100 98 100 100 100 100 100 100 100 100 100 100 100 100 100 100 100 85 93 100 8
5 3 2 0 0 0 0 6 93 94 100 99 100 100 100 100 100 100 100 100 100 100 99 100 100 100 100 100 99 89 100 100 100 100 100 100 100 100 96 70 98 74 8
0 4 100 100 5 5 5 81 59 96 100 100 100 100 100 100 100 100 100 100 100 100 100 92 100 100 100 100 100 100 100 100 100 100 100 100 100 100 92 78 92 52 14
5 56 100 100 18 5 5 100 69 82 100 100 100 100 100 100 100 100 100 100 100 100 100 100 100 100 100 100 100 100 100 100 100 100 100 100 100 97 75 33 63 10 5
68 100 100 97 27 20 94 100 99 100 100 100 100 100 100 100 100 100 100 100 98 100 100 100 100 100 100 100 100 100 100 100 100 100 100 100 100 100 99 60 12 5 5

GFSMA_prec_cloud_108.txt.gz
Cloud_Cover
99 44 50 36 16 30 6 17 55 12 6 14 5 5 5 5 2 2 4 0 0 0 0 0 0 4 5 3 5 2 2 3 5 5 5 0 5 0 0 18 10 20 52
100 100 100 95 100 64 75 66 20 8 6 5 5 5 5 11 5 5 4 4 5 5 1 20 18 14 8 12 5 3 5 5 5 5 5 5 5 4 5 0 1 8 10
100 100 100 100 100 100 70 72 94 16 5 24 73 96 37 53 8 14 13 80 100 22 5 5 4 11 46 50 80 78 37 25 16 84 5 5 5 5 5 0 0 0 2
100 100 96 77 99 100 100 100 100 93 6 24 53 65 99 100 100 94 99 98 44 54 4 1 4 1 5 5 5 5 43 94 100 98 11 7 5 5 4 5 5 5 4
83 100 100 100 100 100 100 100 100 96 62 98 100 100 100 100 100 91 100 97 46 33 35 5 5 4 1 4 6 5 13 53 44 74 96 98 9 6 5 5 65 4 5
78 100 100 100 100 100 100 100 100 100 98 100 100 100 100 96 99 76 80 9 27 5 5 43 100 100 99 96 5 5 5 5 37 4 47 100 99 82 24 62 76 66 5
100 100 100 100 100 99 78 100 100 100 100 100 100 100 100 100 100 100 98 71 62 37 5 64 93 78 67 85 36 5 6 7 5 22 85 100 95 100 100 100 100 87 28
100 100 100 100 100 100 100 100 100 100 100 100 100 100 100 100 90 97 88 23 67 81 62 97 57 99 39 96 90 29 99 50 97 100 98 72 98 100 96 100 66 100 5
100 100 100 100 100 64 100 100 100 100 100 100 100 100 100 100 100 100 100 100 100 66 100 100 99 98 95 90 93 98 99 100 98 97 99 100 100 100 100 100 100 100 95
100 100 100 99 98 98 100 100 100 100 100 100 100 100 100 100 100 100 100 100 100 100 100 100 100 100 100 100 56 94 100 100 100 98 100 100 100 100 100 100 100 89 100
100 100 99 100 100 100 100 100 100 100 100 100 100 100 100 100 100 100 100 100 100 100 100 100 100 100 100 100 100 100 100 100 100 100 100 100 100 100 100 100 92 100 90
69 95 100 100 100 100 100 100 100 100 100 85 100 100 100 100 100 100 100 100 100 100 100 100 100 100 100 100 100 100 100 100 100 100 100 100 100 100 100 100 100 86 92
100 100 100 100 100 100 100 72 93 100 100 100 72 100 100 100 100 100 100 100 100 100 100 100 100 100 100 100 100 100 100 100 100 100 100 100 100 100 100 100 96 100 51
100 100 100 100 100 100 100 100 100 100 100 100 100 100 78 78 69 100 100 78 100 100 100 100 100 100 100 100 100 100 100 100 100 100 100 100 100 100 100 100 98 99 100
100 100 100 100 100 100 100 100 100 100 100 100 100 100 100 100 100 100 100 100 100 100 100 100 100 96 100 100 100 100 100 100 100 100 100 100 100 100 100 100 100 100 100
100 100 100 100 100 100 100 100 100 100 96 88 100 81 100 100 100 100 100 100 100 100 100 100 100 100 100 100 100 100 100 100 100 100 100 100 100 100 100 100 100 91 100
100 100 100 100 100 100 100 100 100 100 100 91 100 99 95 100 94 100 92 100 100 100 100 100 100 100 100 100 100 100 100 100 100 100 100 100 100 100 100 100 100 89 80
100 100 94 15 5 5 5 1 2 5 5 14 18 62 100 100 100 98 100 100 100 100 100 100 100 100 100 100 100 100 100 100 100 100 100 100 100 100 100 100 100 100 100
70 6 38 10 5 7 5 0 0 0 0 2 14 22 51 57 55 61 70 96 100 100 100 100 100 100 100 100 100 100 100 100 100 100 100 100 100 100 100 100 100 100 100
46 95 67 37 14 5 3 0 1 0 0 0 0 0 0 1 30 98 100 100 100 100 100 100 100 100 100 100 100 100 100 100 100 100 100 100 100 100 100 100 100 100 100
73 84 30 5 5 5 5 1 0 0 0 0 0 0 0 0 10 44 100 100 100 100 100 100 100 100 100 100 100 100 100 100 100 100 100 100 100 100 100 100 100 100 100
8 5 5 4 4 100 29 4 0 0 0 0 0 0 0 0 42 54 98 100 98 100 100 100 100 100 100 100 100 100 100 100 100 100 100 100 100 100 100 100 100 100 100
11 10 52 100 100 100 49 14 68 4 42 0 2 0 11 33 81 100 100 100 100 100 100 100 100 100 100 100 100 100 100 100 100 100 100 100 100 100 100 100 100 100 100
80 95 100 100 100 90 5 51 100 0 0 0 0 11 63 91 92 90 100 100 100 100 100 100 100 100 100 100 100 100 100 100 100 100 100 94 100 100 100 100 100 100 100
100 76 100 100 100 60 5 11 33 66 73 12 0 100 84 100 100 73 100 100 100 100 100 100 100 100 100 100 100 100 100 100 100 94 100 100 100 100 100 100 100 100 100
100 100 100 100 100 76 6 5 43 74 93 95 3 30 88 100 100 100 93 100 100 100 100 100 100 100 100 100 100 100 99 100 100 100 100 100 100 100 100 100 100 100 100

GFSMA_prec_cloud_111.txt.gz
Cloud_Cover
54 84 80 33 91 73 10 5 5 5 5 10 38 5 5 1 5 5 6 5 5 1 0 3 5 3 1 0 5 5 5 5 3 4 5 5 0 1 15 23 10 5 3
90 100 100 100 100 100 100 100 81 5 5 5 5 5 5 5 5 10 9 4 5 5 5 20 29 11 5 3 5 5 5 5 0 0 0 0 4 3 5 1 7 12 4
100 100 93 64 100 100 100 94 68 100 100 96 99 100 63 5 5 5 9 41 5 5 5 0 5 2 8 9 24 5 5 2 0 2 5 5 3 4 4 94 24 17 5
100 100 98 94 100 100 100 57 97 100 100 100 97 98 26 26 5 16 17 16 5 5 5 0 0 1 0 2 10 3 19 7 6 12 20 30 4 4 5 4 29 5 36
100 100 100 100 100 100 100 100 100 100 100 100 100 100 100 100 100 72 98 50 20 27 5 5 5 1 0 0 0 0 0 0 4 29 12 3 82 35 23 70 98 5 100
100 100 100 100 100 100 100 100 100 100 100 100 100 100 100 100 100 100 99 75 80 5 5 5 2 36 23 5 4 3 3 5 5 3 1 2 64 51 100 100 100 5 73
100 100 100 100 100 100 100 100 100 100 100 100 100 100 100 100 100 100 100 74 88 18 14 10 51 47 38 88 71 30 5 5 5 5 5 5 100 21 100 100 100 99 99
100 100 100 100 100 100 100 100 100 99 100 100 100 100 100 100 100 100 100 100 83 100 93 100 80 92 100 100 87 88 5 5 5 13 91 93 16 13 98 100 100 72 100
100 100 100 100 78 100 90 59 96 100 100 100 100 100 99 94 85 100 100 100 100 100 100 100 100 93 99 100 100 100 87 70 10 52 100 95 19 90 100 100 100 100 100
100 100 100 95 100 100 100 90 98 100 100 100 100 100 92 100 96 100 100 100 100 100 100 100 83 100 100 100 100 100 99 100 100 100 100 98 100 100 100 100 94 100 100
100 100 100 100 94 100 100 100 100 100 100 100 100 100 100 100 98 97 100 100 100 100 100 100 100 100 100 100 100 100 100 100 100 100 100 100 100 100 100 100 100 100 100
100 100 100 100 100 100 100 100 100 100 100 100 98 100 100 100 100 100 100 100 100 100 100 100 100 100 100 100 100 100 100 100 100 100 100 100 100 100 100 100 100 100 100
100 100 100 100 100 100 100 100 100 100 100 100 100 100 100 97 100 100 100 100 100 100 100 100 100 100 93 99 99 100 100 100 100 100 100 100 100 100 100 100 100 100 100
100 100 100 100 100 100 100 99 100 100 100 100 100 100 100 96 100 100 100 100 100 100 100 100 100 100 100 100 100 100 100 100 100 100 100 100 100 100 100 100 100 100 100
100 100 100 100 100 100 100 100 100 100 100 100 100 100 97 99 100 94 100 98 99 100 70 100 100 100 92 100 100 100 100 100 100 100 100 100 100 100 100 100 100 100 100
100 100 100 100 100 100 100 100 100 100 100 100 100 100 100 100 100 100 96 100 100 100 100 91 97 70 92 94 100 100 100 100 100 100 100 100 100 99 100 100 97 100 100
100 100 100 100 100 100 100 100 100 100 100 100 100 100 98 88 86 99 62 71 99 100 100 100 100 100 93 100 100 100 100 100 100 100 100 100 100 100 100 100 100 100 100
100 100 100 100 100 100 100 100 100 100 100 100 100 100 76 88 92 51 60 72 81 96 100 100 100 100 100 100 100 100 100 100 100 100 100 100 100 100 100 100 100 100 100
87 100 100 100 100 100 100 100 100 100 100 100 100 45 20 16 96 100 100 92 66 74 91 100 100 100 100 100 100 100 100 100 100 100 100 100 100 100 100 100 100 100 100
100 100 100 100 100 100 100 100 100 100 100 99 68 15 2 0 23 40 68 100 100 100 100 100 100 100 100 100 100 100 100 100 100 100 100 96 100 100 100 100 100 100 100
100 100 100 100 100 100 100 100 100 100 100 82 5 4 0 0 0 7 87 100 95 81 100 100 100 100 100 100 100 100 100 100 100 100 100 100 100 100 100 100 100 100 100
100 100 100 100 100 100 100 100 100 100 94 5 5 5 3 0 0 0 0 4 54 85 99 100 100 100 100 100 100 100 100 100 100 100 100 100 100 100 100 100 100 100 100
100 100 100 100 100 100 100 100 48 78 31 0 6 8 3 1 3 0 0 0 100 100 99 100 100 100 100 100 100 100 100 100 100 100 100 100 100 99 100 100 100 100 100
100 100 100 100 100 100 83 43 21 32 7 4 7 20 15 90 100 71 24 29 80 100 100 100 100 100 100 100 100 100 100 100 100 100 100 100 100 100 100 100 100 100 100
57 93 78 98 57 20 5 17 60 70 96 28 10 5 32 100 99 98 100 69 32 100 100 100 100 100 100 100 100 100 100 100 100 100 100 100 100 100 100 100 100 100 100
100 100 100 77 99 100 86 50 94 6 80 99 34 18 100 77 95 98 99 74 44 99 100 100 100 100 100 100 100 100 100 100 100 100 100 100 100 100 100 100 100 100 100